Observation data for Dozier on 05/23/2019      Previous  Date  Next       Current Mesonet Observations  Soil Data  Daily Summary Page  Observations in Plain Language
KDO1 230500Z 13008KT 23/23 A2982 RMK A01 T02280228  RH  100%=      5-min Rain = 0
KDO1 230501Z 13008KT 23/23 A2982 RMK A01 T02280228  RH  100%=      5-min Rain = 0
KDO1 230502Z 13007KT 23/23 A2982 RMK A01 T02280228  RH  100%=      5-min Rain = 0
KDO1 230503Z 13009KT 23/23 A2982 RMK A01 T02280228  RH  100%=      5-min Rain = 0
KDO1 230504Z 13007KT 23/23 A2982 RMK A01 T02280228  RH  100%=      5-min Rain = 0
KDO1 230505Z 13008KT 23/23 A2982 RMK A01 T02280228  RH  100%=      5-min Rain = 0
KDO1 230506Z 13008KT 23/23 A2982 RMK A01 T02280228  RH  100%=      5-min Rain = 0
KDO1 230507Z 13008KT 23/23 A2982 RMK A01 T02280228  RH  100%=      5-min Rain = 0
KDO1 230508Z 13008KT 23/23 A2982 RMK A01 T02280228  RH  100%=      5-min Rain = 0
KDO1 230509Z 13008KT 23/23 A2982 RMK A01 T02280228  RH  100%=      5-min Rain = 0
KDO1 230510Z 13007KT 23/23 A2982 RMK A01 T02280228  RH  100%=      5-min Rain = 0
KDO1 230511Z 13008KT 23/23 A2982 RMK A01 T02280228  RH  100%=      5-min Rain = 0
KDO1 230512Z 13009KT 23/23 A2982 RMK A01 T02280228  RH  100%=      5-min Rain = 0
KDO1 230513Z 13007KT 23/23 A2982 RMK A01 T02280228  RH  100%=      5-min Rain = 0
KDO1 230514Z 13006KT 23/23 A2982 RMK A01 T02280228  RH  100%=      5-min Rain = 0
KDO1 230515Z 13006KT 23/23 A2982 RMK A01 T02280228  RH  100%=      5-min Rain = 0
KDO1 230516Z 13008KT 23/23 A2982 RMK A01 T02280228  RH  100%=      5-min Rain = 0
KDO1 230517Z 13006KT 23/23 A2982 RMK A01 T02280228  RH  100%=      5-min Rain = 0
KDO1 230518Z 12007KT 23/23 A2982 RMK A01 T02280228  RH  100%=      5-min Rain = 0
KDO1 230519Z 12005KT 23/23 A2982 RMK A01 T02280228  RH  100%=      5-min Rain = 0
KDO1 230520Z 12006KT 23/23 A2982 RMK A01 T02280228  RH  100%=      5-min Rain = 0
KDO1 230521Z 13006KT 23/23 A2982 RMK A01 T02280228  RH  100%=      5-min Rain = 0
KDO1 230522Z 13006KT 23/23 A2982 RMK A01 T02270227  RH  100%=      5-min Rain = 0
KDO1 230523Z 13005KT 23/23 A2982 RMK A01 T02270228  RH  100%=      5-min Rain = 0
KDO1 230524Z 13005KT 23/23 A2982 RMK A01 T02270227  RH  100%=      5-min Rain = 0
KDO1 230525Z 12007KT 23/23 A2982 RMK A01 T02270227  RH  100%=      5-min Rain = 0
KDO1 230526Z 12004KT 23/23 A2982 RMK A01 T02270227  RH  100%=      5-min Rain = 0
KDO1 230527Z 12005KT 23/23 A2982 RMK A01 T02270227  RH  100%=      5-min Rain = 0
KDO1 230528Z 12004KT 23/23 A2982 RMK A01 T02270227  RH  100%=      5-min Rain = 0
KDO1 230529Z 12006KT 23/23 A2982 RMK A01 T02260227  RH  100%=      5-min Rain = 0
KDO1 230530Z 12006KT 23/23 A2982 RMK A01 T02260226  RH  100%=      5-min Rain = 0
KDO1 230531Z 12006KT 23/23 A2982 RMK A01 T02260226  RH  100%=      5-min Rain = 0
KDO1 230532Z 11005KT 23/23 A2982 RMK A01 T02260226  RH  100%=      5-min Rain = 0
KDO1 230533Z 12005KT 23/23 A2982 RMK A01 T02260226  RH  100%=      5-min Rain = 0
KDO1 230534Z 12006KT 23/23 A2982 RMK A01 T02260226  RH  100%=      5-min Rain = 0
KDO1 230535Z 12006KT 23/23 A2982 RMK A01 T02260226  RH  100%=      5-min Rain = 0
KDO1 230536Z 12006KT 23/23 A2982 RMK A01 T02260226  RH  100%=      5-min Rain = 0
KDO1 230537Z 11006KT 23/23 A2982 RMK A01 T02260226  RH  100%=      5-min Rain = 0
KDO1 230538Z 12006KT 23/23 A2982 RMK A01 T02260226  RH  100%=      5-min Rain = 0
KDO1 230539Z 12006KT 23/23 A2982 RMK A01 T02260226  RH  100%=      5-min Rain = 0
KDO1 230540Z 12005KT 23/23 A2982 RMK A01 T02260226  RH  100%=      5-min Rain = 0
KDO1 230541Z 12006KT 23/23 A2982 RMK A01 T02260226  RH  100%=      5-min Rain = 0
KDO1 230542Z 11005KT 23/23 A2982 RMK A01 T02260226  RH  100%=      5-min Rain = 0
KDO1 230543Z 11004KT 23/23 A2982 RMK A01 T02260226  RH  100%=      5-min Rain = 0
KDO1 230544Z 12005KT 23/23 A2982 RMK A01 T02250226  RH  100%=      5-min Rain = 0
KDO1 230545Z 11005KT 23/23 A2982 RMK A01 T02250225  RH  100%=      5-min Rain = 0
KDO1 230546Z 10004KT 23/23 A2982 RMK A01 T02250225  RH  100%=      5-min Rain = 0
KDO1 230547Z 10005KT 22/22 A2982 RMK A01 T02240224  RH  100%=      5-min Rain = 0
KDO1 230548Z 10006KT 22/22 A2982 RMK A01 T02240224  RH  100%=      5-min Rain = 0
KDO1 230549Z 11006KT 22/22 A2982 RMK A01 T02240224  RH  100%=      5-min Rain = 0
KDO1 230550Z 10006KT 22/22 A2982 RMK A01 T02240224  RH  100%=      5-min Rain = 0
KDO1 230551Z 10006KT 22/22 A2982 RMK A01 T02240224  RH  100%=      5-min Rain = 0
KDO1 230552Z 10006KT 22/22 A2982 RMK A01 T02240224  RH  100%=      5-min Rain = 0
KDO1 230553Z 10006KT 22/22 A2982 RMK A01 T02240224  RH  100%=      5-min Rain = 0
KDO1 230554Z 10006KT 22/22 A2982 RMK A01 T02240224  RH  100%=      5-min Rain = 0
KDO1 230555Z 10006KT 22/22 A2982 RMK A01 T02240224  RH  100%=      5-min Rain = 0
KDO1 230556Z 10006KT 22/22 A2982 RMK A01 T02240224  RH  100%=      5-min Rain = 0
KDO1 230557Z 11008KT 22/22 A2982 RMK A01 T02240224  RH  100%=      5-min Rain = 0
KDO1 230558Z 11006KT 22/22 A2982 RMK A01 T02240224  RH  100%=      5-min Rain = 0
KDO1 230559Z 11005KT 22/22 A2982 RMK A01 T02240224  RH  100%=      5-min Rain = 0
KDO1 230600Z 11007KT 22/22 A2982 RMK A01 T02240224  RH  100%=      5-min Rain = 0
KDO1 230601Z 11007KT 22/22 A2982 RMK A01 T02240224  RH  100%=      5-min Rain = 0
KDO1 230602Z 11007KT 22/22 A2982 RMK A01 T02230223  RH  100%=      5-min Rain = 0
KDO1 230603Z 11005KT 22/22 A2982 RMK A01 T02230223  RH  100%=      5-min Rain = 0
KDO1 230604Z 11006KT 22/22 A2982 RMK A01 T02240224  RH  100%=      5-min Rain = 0
KDO1 230605Z 11007KT 22/22 A2982 RMK A01 T02230224  RH  100%=      5-min Rain = 0
KDO1 230606Z 11007KT 22/22 A2982 RMK A01 T02230223  RH  100%=      5-min Rain = 0
KDO1 230607Z 11006KT 22/22 A2982 RMK A01 T02230223  RH  100%=      5-min Rain = 0
KDO1 230608Z 12006KT 22/22 A2982 RMK A01 T02230223  RH  100%=      5-min Rain = 0
KDO1 230609Z 12006KT 22/22 A2982 RMK A01 T02230223  RH  100%=      5-min Rain = 0
KDO1 230610Z 11006KT 22/22 A2982 RMK A01 T02230223  RH  100%=      5-min Rain = 0
KDO1 230611Z 12006KT 22/22 A2982 RMK A01 T02230223  RH  100%=      5-min Rain = 0
KDO1 230612Z 12007KT 22/22 A2982 RMK A01 T02220222  RH  100%=      5-min Rain = 0
KDO1 230613Z 12007KT 22/22 A2982 RMK A01 T02220222  RH  100%=      5-min Rain = 0
KDO1 230614Z 12006KT 22/22 A2982 RMK A01 T02220222  RH  100%=      5-min Rain = 0
KDO1 230615Z 11007KT 22/22 A2982 RMK A01 T02220223  RH  100%=      5-min Rain = 0
KDO1 230616Z 12007KT 22/22 A2982 RMK A01 T02220222  RH  100%=      5-min Rain = 0
KDO1 230617Z 12007KT 22/22 A2982 RMK A01 T02220223  RH  100%=      5-min Rain = 0
KDO1 230618Z 12005KT 22/22 A2983 RMK A01 T02220222  RH  100%=      5-min Rain = 0
KDO1 230619Z 12006KT 22/22 A2983 RMK A01 T02220222  RH  100%=      5-min Rain = 0
KDO1 230620Z 12008KT 22/22 A2983 RMK A01 T02220222  RH  100%=      5-min Rain = 0
KDO1 230621Z 12007KT 22/22 A2983 RMK A01 T02220222  RH  100%=      5-min Rain = 0
KDO1 230622Z 13007KT 22/22 A2983 RMK A01 T02220222  RH  100%=      5-min Rain = 0
KDO1 230623Z 13006KT 22/22 A2983 RMK A01 T02220222  RH  100%=      5-min Rain = 0
KDO1 230624Z 12005KT 22/22 A2983 RMK A01 T02220222  RH  100%=      5-min Rain = 0
KDO1 230625Z 12007KT 22/22 A2983 RMK A01 T02210221  RH  100%=      5-min Rain = 0
KDO1 230626Z 12007KT 22/22 A2983 RMK A01 T02210221  RH  100%=      5-min Rain = 0
KDO1 230627Z 12006KT 22/22 A2983 RMK A01 T02210221  RH  100%=      5-min Rain = 0
KDO1 230628Z 12007KT 22/22 A2983 RMK A01 T02210221  RH  100%=      5-min Rain = 0
KDO1 230629Z 13006KT 22/22 A2983 RMK A01 T02210221  RH  100%=      5-min Rain = 0
KDO1 230630Z 12007KT 22/22 A2983 RMK A01 T02210221  RH  100%=      5-min Rain = 0
KDO1 230631Z 12008KT 22/22 A2983 RMK A01 T02210221  RH  100%=      5-min Rain = 0
KDO1 230632Z 12007KT 22/22 A2983 RMK A01 T02210221  RH  100%=      5-min Rain = 0
KDO1 230633Z 12006KT 22/22 A2983 RMK A01 T02210221  RH  100%=      5-min Rain = 0
KDO1 230634Z 11005KT 22/22 A2983 RMK A01 T02210221  RH  100%=      5-min Rain = 0
KDO1 230635Z 11006KT 22/22 A2983 RMK A01 T02210221  RH  100%=      5-min Rain = 0
KDO1 230636Z 12005KT 22/22 A2983 RMK A01 T02210221  RH  100%=      5-min Rain = 0
KDO1 230637Z 11006KT 22/22 A2983 RMK A01 T02200221  RH  100%=      5-min Rain = 0
KDO1 230638Z 12006KT 22/22 A2983 RMK A01 T02200221  RH  100%=      5-min Rain = 0
KDO1 230639Z 12005KT 22/22 A2983 RMK A01 T02200220  RH  100%=      5-min Rain = 0
KDO1 230640Z 11006KT 22/22 A2983 RMK A01 T02200220  RH  100%=      5-min Rain = 0
KDO1 230641Z 11006KT 22/22 A2983 RMK A01 T02200220  RH  100%=      5-min Rain = 0
KDO1 230642Z 11006KT 22/22 A2983 RMK A01 T02200220  RH  100%=      5-min Rain = 0
KDO1 230643Z 11007KT 22/22 A2983 RMK A01 T02190220  RH  100%=      5-min Rain = 0
KDO1 230644Z 11006KT 22/22 A2983 RMK A01 T02190219  RH  100%=      5-min Rain = 0
KDO1 230645Z 11006KT 22/22 A2983 RMK A01 T02190219  RH  100%=      5-min Rain = 0
KDO1 230646Z 11007KT 22/22 A2983 RMK A01 T02190219  RH  100%=      5-min Rain = 0
KDO1 230647Z 11006KT 22/22 A2983 RMK A01 T02190219  RH  100%=      5-min Rain = 0
KDO1 230648Z 12007KT 22/22 A2983 RMK A01 T02190219  RH  100%=      5-min Rain = 0
KDO1 230649Z 11006KT 22/22 A2983 RMK A01 T02190219  RH  100%=      5-min Rain = 0
KDO1 230650Z 12006KT 22/22 A2983 RMK A01 T02180219  RH  100%=      5-min Rain = 0
KDO1 230651Z 11005KT 22/22 A2983 RMK A01 T02180218  RH  100%=      5-min Rain = 0
KDO1 230652Z 12006KT 22/22 A2984 RMK A01 T02180218  RH  100%=      5-min Rain = 0
KDO1 230653Z 12007KT 22/22 A2984 RMK A01 T02180218  RH  100%=      5-min Rain = 0
KDO1 230654Z 11006KT 22/22 A2984 RMK A01 T02180218  RH  100%=      5-min Rain = 0
KDO1 230655Z 11005KT 22/22 A2984 RMK A01 T02180218  RH  100%=      5-min Rain = 0
KDO1 230656Z 11007KT 22/22 A2984 RMK A01 T02180218  RH  100%=      5-min Rain = 0
KDO1 230657Z 12006KT 22/22 A2984 RMK A01 T02180218  RH  100%=      5-min Rain = 0
KDO1 230658Z 12006KT 22/22 A2984 RMK A01 T02180218  RH  100%=      5-min Rain = 0
KDO1 230659Z 11005KT 22/22 A2984 RMK A01 T02170218  RH  100%=      5-min Rain = 0
KDO1 230700Z 11006KT 22/22 A2984 RMK A01 T02170217  RH  100%=      5-min Rain = 0
KDO1 230701Z 11006KT 22/22 A2984 RMK A01 T02170217  RH  100%=      5-min Rain = 0
KDO1 230702Z 11006KT 22/22 A2984 RMK A01 T02170217  RH  100%=      5-min Rain = 0
KDO1 230703Z 11005KT 22/22 A2984 RMK A01 T02170217  RH  100%=      5-min Rain = 0
KDO1 230704Z 11005KT 22/22 A2984 RMK A01 T02170217  RH  100%=      5-min Rain = 0
KDO1 230705Z 11006KT 22/22 A2984 RMK A01 T02170217  RH  100%=      5-min Rain = 0
KDO1 230706Z 11006KT 22/22 A2984 RMK A01 T02170217  RH  100%=      5-min Rain = 0
KDO1 230707Z 11005KT 22/22 A2984 RMK A01 T02170217  RH  100%=      5-min Rain = 0
KDO1 230708Z 11005KT 22/22 A2984 RMK A01 T02160216  RH  100%=      5-min Rain = 0
KDO1 230709Z 11006KT 22/22 A2984 RMK A01 T02160216  RH  100%=      5-min Rain = 0
KDO1 230710Z 11005KT 22/22 A2984 RMK A01 T02160216  RH  100%=      5-min Rain = 0
KDO1 230711Z 11006KT 22/22 A2984 RMK A01 T02160216  RH  100%=      5-min Rain = 0
KDO1 230712Z 12006KT 22/22 A2984 RMK A01 T02160217  RH  100%=      5-min Rain = 0
KDO1 230713Z 11005KT 22/22 A2984 RMK A01 T02160216  RH  100%=      5-min Rain = 0
KDO1 230714Z 11005KT 22/22 A2984 RMK A01 T02160217  RH  100%=      5-min Rain = 0
KDO1 230715Z 10004KT 22/22 A2984 RMK A01 T02160217  RH  100%=      5-min Rain = 0
KDO1 230716Z 10004KT 22/22 A2984 RMK A01 T02160217  RH  100%=      5-min Rain = 0
KDO1 230717Z 10004KT 22/22 A2984 RMK A01 T02160216  RH  100%=      5-min Rain = 0
KDO1 230718Z 11004KT 22/22 A2984 RMK A01 T02160216  RH  100%=      5-min Rain = 0
KDO1 230719Z 10004KT 22/22 A2984 RMK A01 T02160216  RH  100%=      5-min Rain = 0
KDO1 230720Z 10006KT 22/22 A2984 RMK A01 T02160216  RH  100%=      5-min Rain = 0
KDO1 230721Z 11005KT 22/22 A2984 RMK A01 T02160216  RH  100%=      5-min Rain = 0
KDO1 230722Z 10004KT 22/22 A2984 RMK A01 T02160216  RH  100%=      5-min Rain = 0
KDO1 230723Z 10005KT 22/22 A2984 RMK A01 T02160216  RH  100%=      5-min Rain = 0
KDO1 230724Z 11005KT 22/22 A2984 RMK A01 T02160216  RH  100%=      5-min Rain = 0
KDO1 230725Z 11004KT 22/22 A2985 RMK A01 T02160216  RH  100%=      5-min Rain = 0
KDO1 230726Z 12004KT 22/22 A2985 RMK A01 T02160216  RH  100%=      5-min Rain = 0
KDO1 230727Z 11004KT 22/22 A2985 RMK A01 T02160216  RH  100%=      5-min Rain = 0
KDO1 230728Z 10004KT 22/22 A2985 RMK A01 T02160216  RH  100%=      5-min Rain = 0
KDO1 230729Z 11004KT 22/22 A2985 RMK A01 T02160216  RH  100%=      5-min Rain = 0
KDO1 230730Z 11003KT 22/22 A2985 RMK A01 T02160216  RH  100%=      5-min Rain = 0
KDO1 230731Z 11003KT 22/22 A2985 RMK A01 T02160216  RH  100%=      5-min Rain = 0
KDO1 230732Z 10003KT 22/22 A2985 RMK A01 T02160216  RH  100%=      5-min Rain = 0
KDO1 230733Z 11003KT 22/22 A2985 RMK A01 T02160216  RH  100%=      5-min Rain = 0
KDO1 230734Z 11003KT 22/22 A2985 RMK A01 T02150215  RH  100%=      5-min Rain = 0
KDO1 230735Z 11003KT 22/22 A2985 RMK A01 T02150215  RH  100%=      5-min Rain = 0
KDO1 230736Z 10003KT 22/22 A2985 RMK A01 T02150215  RH  100%=      5-min Rain = 0
KDO1 230737Z 11004KT 22/22 A2985 RMK A01 T02150215  RH  100%=      5-min Rain = 0
KDO1 230738Z 11004KT 22/22 A2985 RMK A01 T02150215  RH  100%=      5-min Rain = 0
KDO1 230739Z 11004KT 22/22 A2985 RMK A01 T02150215  RH  100%=      5-min Rain = 0
KDO1 230740Z 11004KT 21/21 A2985 RMK A01 T02140214  RH  100%=      5-min Rain = 0
KDO1 230741Z 10004KT 21/21 A2985 RMK A01 T02140214  RH  100%=      5-min Rain = 0
KDO1 230742Z 11003KT 21/21 A2985 RMK A01 T02140214  RH  100%=      5-min Rain = 0
KDO1 230743Z 11004KT 21/21 A2985 RMK A01 T02140214  RH  100%=      5-min Rain = 0
KDO1 230744Z 11003KT 21/21 A2985 RMK A01 T02140214  RH  100%=      5-min Rain = 0
KDO1 230745Z 11003KT 21/21 A2985 RMK A01 T02130213  RH  100%=      5-min Rain = 0
KDO1 230746Z 11004KT 21/21 A2985 RMK A01 T02130214  RH  100%=      5-min Rain = 0
KDO1 230747Z 10003KT 21/21 A2985 RMK A01 T02130213  RH  100%=      5-min Rain = 0
KDO1 230748Z 10003KT 21/21 A2985 RMK A01 T02130213  RH  100%=      5-min Rain = 0
KDO1 230749Z 11003KT 21/21 A2985 RMK A01 T02130213  RH  100%=      5-min Rain = 0
KDO1 230750Z 11003KT 21/21 A2985 RMK A01 T02120212  RH  100%=      5-min Rain = 0
KDO1 230751Z 10003KT 21/21 A2985 RMK A01 T02120212  RH  100%=      5-min Rain = 0
KDO1 230752Z 11003KT 21/21 A2985 RMK A01 T02120212  RH  100%=      5-min Rain = 0
KDO1 230753Z 11003KT 21/21 A2985 RMK A01 T02110211  RH  100%=      5-min Rain = 0
KDO1 230754Z 11003KT 21/21 A2985 RMK A01 T02110212  RH  100%=      5-min Rain = 0
KDO1 230755Z 11004KT 21/21 A2985 RMK A01 T02110211  RH  100%=      5-min Rain = 0
KDO1 230756Z 11004KT 21/21 A2985 RMK A01 T02110211  RH  100%=      5-min Rain = 0
KDO1 230757Z 12003KT 21/21 A2985 RMK A01 T02100211  RH  100%=      5-min Rain = 0
KDO1 230758Z 11003KT 21/21 A2985 RMK A01 T02100210  RH  100%=      5-min Rain = 0
KDO1 230759Z 11003KT 21/21 A2985 RMK A01 T02100210  RH  100%=      5-min Rain = 0
KDO1 230800Z 12004KT 21/21 A2985 RMK A01 T02100210  RH  100%=      5-min Rain = 0
KDO1 230801Z 11004KT 21/21 A2985 RMK A01 T02100210  RH  100%=      5-min Rain = 0
KDO1 230802Z 12004KT 21/21 A2985 RMK A01 T02090210  RH  100%=      5-min Rain = 0
KDO1 230803Z 12004KT 21/21 A2985 RMK A01 T02090209  RH  100%=      5-min Rain = 0
KDO1 230804Z 12003KT 21/21 A2985 RMK A01 T02090209  RH  100%=      5-min Rain = 0
KDO1 230805Z 12004KT 21/21 A2985 RMK A01 T02090209  RH  100%=      5-min Rain = 0
KDO1 230806Z 12004KT 21/21 A2985 RMK A01 T02090209  RH  100%=      5-min Rain = 0
KDO1 230807Z 12004KT 21/21 A2985 RMK A01 T02090209  RH  100%=      5-min Rain = 0
KDO1 230808Z 12004KT 21/21 A2985 RMK A01 T02090209  RH  100%=      5-min Rain = 0
KDO1 230809Z 12004KT 21/21 A2985 RMK A01 T02080208  RH  100%=      5-min Rain = 0
KDO1 230810Z 12004KT 21/21 A2985 RMK A01 T02080208  RH  100%=      5-min Rain = 0
KDO1 230811Z 12004KT 21/21 A2985 RMK A01 T02080208  RH  100%=      5-min Rain = 0
KDO1 230812Z 12004KT 21/21 A2985 RMK A01 T02080208  RH  100%=      5-min Rain = 0
KDO1 230813Z 13005KT 21/21 A2985 RMK A01 T02070208  RH  100%=      5-min Rain = 0
KDO1 230814Z 12004KT 21/21 A2985 RMK A01 T02070208  RH  100%=      5-min Rain = 0
KDO1 230815Z 13004KT 21/21 A2985 RMK A01 T02080208  RH  100%=      5-min Rain = 0
KDO1 230816Z 12005KT 21/21 A2985 RMK A01 T02080208  RH  100%=      5-min Rain = 0
KDO1 230817Z 12004KT 21/21 A2985 RMK A01 T02070207  RH  100%=      5-min Rain = 0
KDO1 230818Z 12004KT 21/21 A2985 RMK A01 T02070207  RH  100%=      5-min Rain = 0
KDO1 230819Z 12004KT 21/21 A2985 RMK A01 T02070207  RH  100%=      5-min Rain = 0
KDO1 230820Z 12004KT 21/21 A2985 RMK A01 T02060207  RH  100%=      5-min Rain = 0
KDO1 230821Z 12004KT 21/21 A2985 RMK A01 T02060206  RH  100%=      5-min Rain = 0
KDO1 230822Z 11004KT 21/21 A2985 RMK A01 T02060206  RH  100%=      5-min Rain = 0
KDO1 230823Z 11004KT 21/21 A2985 RMK A01 T02060206  RH  100%=      5-min Rain = 0
KDO1 230824Z 11005KT 21/21 A2985 RMK A01 T02060206  RH  100%=      5-min Rain = 0
KDO1 230825Z 11005KT 21/21 A2985 RMK A01 T02060206  RH  100%=      5-min Rain = 0
KDO1 230826Z 11004KT 21/21 A2985 RMK A01 T02060206  RH  100%=      5-min Rain = 0
KDO1 230827Z 11004KT 21/21 A2985 RMK A01 T02060206  RH  100%=      5-min Rain = 0
KDO1 230828Z 11004KT 21/21 A2985 RMK A01 T02060206  RH  100%=      5-min Rain = 0
KDO1 230829Z 10004KT 21/21 A2985 RMK A01 T02060206  RH  100%=      5-min Rain = 0
KDO1 230830Z 10004KT 21/21 A2986 RMK A01 T02060206  RH  100%=      5-min Rain = 0
KDO1 230831Z 11005KT 21/21 A2986 RMK A01 T02060206  RH  100%=      5-min Rain = 0
KDO1 230832Z 11004KT 21/21 A2986 RMK A01 T02060206  RH  100%=      5-min Rain = 0
KDO1 230833Z 11004KT 21/21 A2986 RMK A01 T02060206  RH  100%=      5-min Rain = 0
KDO1 230834Z 10004KT 21/21 A2986 RMK A01 T02060206  RH  100%=      5-min Rain = 0
KDO1 230835Z 10004KT 21/21 A2986 RMK A01 T02060206  RH  100%=      5-min Rain = 0
KDO1 230836Z 10004KT 21/21 A2986 RMK A01 T02060206  RH  100%=      5-min Rain = 0
KDO1 230837Z 10004KT 21/21 A2986 RMK A01 T02060206  RH  100%=      5-min Rain = 0
KDO1 230838Z 10004KT 21/21 A2986 RMK A01 T02060206  RH  100%=      5-min Rain = 0
KDO1 230839Z 10004KT 21/21 A2986 RMK A01 T02060206  RH  100%=      5-min Rain = 0
KDO1 230840Z 10004KT 21/21 A2986 RMK A01 T02060206  RH  100%=      5-min Rain = 0
KDO1 230841Z 10005KT 21/21 A2986 RMK A01 T02060206  RH  100%=      5-min Rain = 0
KDO1 230842Z 10005KT 21/21 A2986 RMK A01 T02060206  RH  100%=      5-min Rain = 0
KDO1 230843Z 10005KT 21/21 A2986 RMK A01 T02060206  RH  100%=      5-min Rain = 0
KDO1 230844Z 10005KT 21/21 A2986 RMK A01 T02060206  RH  100%=      5-min Rain = 0
KDO1 230845Z 09005KT 21/21 A2986 RMK A01 T02070207  RH  100%=      5-min Rain = 0
KDO1 230846Z 10005KT 21/21 A2986 RMK A01 T02070207  RH  100%=      5-min Rain = 0
KDO1 230847Z 10006KT 21/21 A2986 RMK A01 T02070207  RH  100%=      5-min Rain = 0
KDO1 230848Z 10005KT 21/21 A2986 RMK A01 T02070207  RH  100%=      5-min Rain = 0
KDO1 230849Z 10005KT 21/21 A2986 RMK A01 T02070207  RH  100%=      5-min Rain = 0
KDO1 230850Z 10005KT 21/21 A2986 RMK A01 T02070207  RH  100%=      5-min Rain = 0
KDO1 230851Z 10005KT 21/21 A2986 RMK A01 T02070207  RH  100%=      5-min Rain = 0
KDO1 230852Z 10005KT 21/21 A2986 RMK A01 T02070207  RH  100%=      5-min Rain = 0
KDO1 230853Z 11005KT 21/21 A2986 RMK A01 T02070207  RH  100%=      5-min Rain = 0
KDO1 230854Z 11005KT 21/21 A2986 RMK A01 T02070207  RH  100%=      5-min Rain = 0
KDO1 230855Z 11005KT 21/21 A2986 RMK A01 T02070207  RH  100%=      5-min Rain = 0
KDO1 230856Z 11005KT 21/21 A2986 RMK A01 T02070207  RH  100%=      5-min Rain = 0
KDO1 230857Z 11004KT 21/21 A2986 RMK A01 T02070207  RH  100%=      5-min Rain = 0
KDO1 230858Z 11005KT 21/21 A2986 RMK A01 T02070207  RH  100%=      5-min Rain = 0
KDO1 230859Z 11004KT 21/21 A2986 RMK A01 T02070207  RH  100%=      5-min Rain = 0
KDO1 230900Z 12005KT 21/21 A2986 RMK A01 T02070207  RH  100%=      5-min Rain = 0
KDO1 230901Z 12005KT 21/21 A2986 RMK A01 T02060206  RH  100%=      5-min Rain = 0
KDO1 230902Z 12005KT 21/21 A2986 RMK A01 T02060206  RH  100%=      5-min Rain = 0
KDO1 230903Z 12005KT 21/21 A2986 RMK A01 T02060206  RH  100%=      5-min Rain = 0
KDO1 230904Z 12006KT 21/21 A2986 RMK A01 T02060206  RH  100%=      5-min Rain = 0
KDO1 230905Z 12006KT 21/21 A2986 RMK A01 T02060206  RH  100%=      5-min Rain = 0
KDO1 230906Z 12005KT 21/21 A2986 RMK A01 T02060206  RH  100%=      5-min Rain = 0
KDO1 230907Z 12005KT 21/21 A2986 RMK A01 T02060206  RH  100%=      5-min Rain = 0
KDO1 230908Z 12006KT 21/21 A2986 RMK A01 T02060206  RH  100%=      5-min Rain = 0
KDO1 230909Z 12006KT 21/21 A2986 RMK A01 T02060206  RH  100%=      5-min Rain = 0
KDO1 230910Z 12005KT 21/21 A2986 RMK A01 T02060206  RH  100%=      5-min Rain = 0
KDO1 230911Z 12005KT 21/21 A2986 RMK A01 T02070207  RH  100%=      5-min Rain = 0
KDO1 230912Z 12006KT 21/21 A2986 RMK A01 T02070207  RH  100%=      5-min Rain = 0
KDO1 230913Z 12005KT 21/21 A2987 RMK A01 T02070207  RH  100%=      5-min Rain = 0
KDO1 230914Z 12006KT 21/21 A2987 RMK A01 T02070207  RH  100%=      5-min Rain = 0
KDO1 230915Z 12006KT 21/21 A2987 RMK A01 T02070207  RH  100%=      5-min Rain = 0
KDO1 230916Z 12006KT 21/21 A2987 RMK A01 T02070208  RH  100%=      5-min Rain = 0
KDO1 230917Z 12006KT 21/21 A2987 RMK A01 T02080208  RH  100%=      5-min Rain = 0
KDO1 230918Z 11006KT 21/21 A2987 RMK A01 T02080208  RH  100%=      5-min Rain = 0
KDO1 230919Z 12006KT 21/21 A2987 RMK A01 T02080209  RH  100%=      5-min Rain = 0
KDO1 230920Z 12006KT 21/21 A2987 RMK A01 T02080208  RH  100%=      5-min Rain = 0
KDO1 230921Z 11005KT 21/21 A2987 RMK A01 T02090209  RH  100%=      5-min Rain = 0
KDO1 230922Z 11006KT 21/21 A2987 RMK A01 T02090209  RH  100%=      5-min Rain = 0
KDO1 230923Z 11005KT 21/21 A2987 RMK A01 T02090209  RH  100%=      5-min Rain = 0
KDO1 230924Z 11007KT 21/21 A2987 RMK A01 T02090209  RH  100%=      5-min Rain = 0
KDO1 230925Z 11006KT 21/21 A2987 RMK A01 T02100210  RH  100%=      5-min Rain = 0
KDO1 230926Z 11006KT 21/21 A2987 RMK A01 T02100210  RH  100%=      5-min Rain = 0
KDO1 230927Z 11005KT 21/21 A2987 RMK A01 T02100210  RH  100%=      5-min Rain = 0
KDO1 230928Z 11007KT 21/21 A2987 RMK A01 T02100210  RH  100%=      5-min Rain = 0
KDO1 230929Z 11007KT 21/21 A2987 RMK A01 T02100210  RH  100%=      5-min Rain = 0
KDO1 230930Z 11006KT 21/21 A2987 RMK A01 T02100210  RH  100%=      5-min Rain = 0
KDO1 230931Z 11005KT 21/21 A2987 RMK A01 T02100210  RH  100%=      5-min Rain = 0
KDO1 230932Z 10006KT 21/21 A2987 RMK A01 T02100210  RH  100%=      5-min Rain = 0
KDO1 230933Z 10006KT 21/21 A2987 RMK A01 T02100210  RH  100%=      5-min Rain = 0
KDO1 230934Z 10006KT 21/21 A2987 RMK A01 T02100210  RH  100%=      5-min Rain = 0
KDO1 230935Z 10007KT 21/21 A2987 RMK A01 T02100210  RH  100%=      5-min Rain = 0
KDO1 230936Z 10006KT 21/21 A2987 RMK A01 T02100210  RH  100%=      5-min Rain = 0
KDO1 230937Z 11006KT 21/21 A2987 RMK A01 T02100210  RH  100%=      5-min Rain = 0
KDO1 230938Z 11005KT 21/21 A2987 RMK A01 T02100210  RH  100%=      5-min Rain = 0
KDO1 230939Z 11005KT 21/21 A2987 RMK A01 T02100210  RH  100%=      5-min Rain = 0
KDO1 230940Z 11005KT 21/21 A2987 RMK A01 T02100210  RH  100%=      5-min Rain = 0
KDO1 230941Z 11006KT 21/21 A2987 RMK A01 T02100210  RH  100%=      5-min Rain = 0
KDO1 230942Z 11007KT 21/21 A2987 RMK A01 T02100210  RH  100%=      5-min Rain = 0
KDO1 230943Z 11005KT 21/21 A2987 RMK A01 T02100210  RH  100%=      5-min Rain = 0
KDO1 230944Z 11006KT 21/21 A2987 RMK A01 T02100210  RH  100%=      5-min Rain = 0
KDO1 230945Z 12007KT 21/21 A2987 RMK A01 T02100210  RH  100%=      5-min Rain = 0
KDO1 230946Z 11006KT 21/21 A2987 RMK A01 T02100210  RH  100%=      5-min Rain = 0
KDO1 230947Z 11007KT 21/21 A2987 RMK A01 T02100211  RH  100%=      5-min Rain = 0
KDO1 230948Z 11006KT 21/21 A2987 RMK A01 T02100210  RH  100%=      5-min Rain = 0
KDO1 230949Z 11006KT 21/21 A2987 RMK A01 T02110211  RH  100%=      5-min Rain = 0
KDO1 230950Z 11007KT 21/21 A2988 RMK A01 T02100210  RH  100%=      5-min Rain = 0
KDO1 230951Z 12007KT 21/21 A2988 RMK A01 T02100211  RH  100%=      5-min Rain = 0
KDO1 230952Z 12006KT 21/21 A2988 RMK A01 T02100210  RH  100%=      5-min Rain = 0
KDO1 230953Z 11006KT 21/21 A2988 RMK A01 T02110211  RH  100%=      5-min Rain = 0
KDO1 230954Z 12008KT 21/21 A2988 RMK A01 T02110211  RH  100%=      5-min Rain = 0
KDO1 230955Z 11007KT 21/21 A2988 RMK A01 T02110211  RH  100%=      5-min Rain = 0
KDO1 230956Z 12006KT 21/21 A2988 RMK A01 T02110211  RH  100%=      5-min Rain = 0
KDO1 230957Z 12008KT 21/21 A2988 RMK A01 T02110211  RH  100%=      5-min Rain = 0
KDO1 230958Z 12007KT 21/21 A2988 RMK A01 T02110211  RH  100%=      5-min Rain = 0
KDO1 230959Z 12008KT 21/21 A2988 RMK A01 T02110211  RH  100%=      5-min Rain = 0
KDO1 231000Z 12008KT 21/21 A2988 RMK A01 T02110211  RH  100%=      5-min Rain = 0
KDO1 231001Z 12008KT 21/21 A2988 RMK A01 T02110211  RH  100%=      5-min Rain = 0
KDO1 231002Z 12008KT 21/21 A2988 RMK A01 T02110211  RH  100%=      5-min Rain = 0
KDO1 231003Z 11007KT 21/21 A2988 RMK A01 T02110211  RH  100%=      5-min Rain = 0
KDO1 231004Z 11007KT 21/21 A2988 RMK A01 T02110211  RH  100%=      5-min Rain = 0
KDO1 231005Z 11009KT 21/21 A2988 RMK A01 T02110211  RH  100%=      5-min Rain = 0
KDO1 231006Z 12007KT 21/21 A2988 RMK A01 T02110212  RH  100%=      5-min Rain = 0
KDO1 231007Z 12007KT 21/21 A2988 RMK A01 T02110211  RH  100%=      5-min Rain = 0
KDO1 231008Z 11008KT 21/21 A2988 RMK A01 T02110211  RH  100%=      5-min Rain = 0
KDO1 231009Z 12007KT 21/21 A2988 RMK A01 T02110211  RH  100%=      5-min Rain = 0
KDO1 231010Z 12008KT 21/21 A2988 RMK A01 T02110211  RH  100%=      5-min Rain = 0
KDO1 231011Z 12006KT 21/21 A2988 RMK A01 T02110211  RH  100%=      5-min Rain = 0
KDO1 231012Z 12007KT 21/21 A2988 RMK A01 T02110212  RH  100%=      5-min Rain = 0
KDO1 231013Z 12008KT 21/21 A2988 RMK A01 T02110211  RH  100%=      5-min Rain = 0
KDO1 231014Z 12008KT 21/21 A2988 RMK A01 T02110211  RH  100%=      5-min Rain = 0
KDO1 231015Z 12005KT 21/21 A2988 RMK A01 T02110211  RH  100%=      5-min Rain = 0
KDO1 231016Z 12007KT 21/21 A2988 RMK A01 T02110211  RH  100%=      5-min Rain = 0
KDO1 231017Z 12007KT 21/21 A2988 RMK A01 T02110211  RH  100%=      5-min Rain = 0
KDO1 231018Z 12005KT 21/21 A2988 RMK A01 T02110211  RH  100%=      5-min Rain = 0
KDO1 231019Z 11006KT 21/21 A2988 RMK A01 T02110211  RH  100%=      5-min Rain = 0
KDO1 231020Z 12006KT 21/21 A2988 RMK A01 T02110211  RH  100%=      5-min Rain = 0
KDO1 231021Z 14005KT 21/21 A2988 RMK A01 T02110212  RH  100%=      5-min Rain = 0
KDO1 231022Z 13006KT 21/21 A2988 RMK A01 T02110211  RH  100%=      5-min Rain = 0
KDO1 231023Z 12007KT 21/21 A2988 RMK A01 T02110211  RH  100%=      5-min Rain = 0
KDO1 231024Z 12007KT 21/21 A2988 RMK A01 T02110211  RH  100%=      5-min Rain = 0
KDO1 231025Z 12009KT 21/21 A2988 RMK A01 T02110211  RH  100%=      5-min Rain = 0
KDO1 231026Z 12008KT 21/21 A2989 RMK A01 T02110211  RH  100%=      5-min Rain = 0
KDO1 231027Z 11005KT 21/21 A2989 RMK A01 T02110211  RH  100%=      5-min Rain = 0
KDO1 231028Z 12006KT 21/21 A2989 RMK A01 T02110211  RH  100%=      5-min Rain = 0
KDO1 231029Z 12007KT 21/21 A2989 RMK A01 T02110211  RH  100%=      5-min Rain = 0
KDO1 231030Z 12007KT 21/21 A2989 RMK A01 T02110211  RH  100%=      5-min Rain = 0
KDO1 231031Z 12007KT 21/21 A2989 RMK A01 T02110211  RH  100%=      5-min Rain = 0
KDO1 231032Z 12007KT 21/21 A2989 RMK A01 T02110211  RH  100%=      5-min Rain = 0
KDO1 231033Z 12004KT 21/21 A2989 RMK A01 T02110211  RH  100%=      5-min Rain = 0
KDO1 231034Z 12005KT 21/21 A2989 RMK A01 T02110212  RH  100%=      5-min Rain = 0
KDO1 231035Z 13005KT 21/21 A2989 RMK A01 T02110211  RH  100%=      5-min Rain = 0
KDO1 231036Z 16003KT 21/21 A2989 RMK A01 T02110211  RH  100%=      5-min Rain = 0
KDO1 231037Z 16002KT 21/21 A2989 RMK A01 T02110211  RH  100%=      5-min Rain = 0
KDO1 231038Z 18002KT 21/21 A2989 RMK A01 T02110211  RH  100%=      5-min Rain = 0
KDO1 231039Z 20001KT 21/21 A2989 RMK A01 T02110211  RH  100%=      5-min Rain = 0
KDO1 231040Z 18002KT 21/21 A2989 RMK A01 T02110211  RH  100%=      5-min Rain = 0
KDO1 231041Z 13003KT 21/21 A2989 RMK A01 T02110211  RH  100%=      5-min Rain = 0
KDO1 231042Z 14005KT 21/21 A2989 RMK A01 T02110212  RH  100%=      5-min Rain = 0
KDO1 231043Z 12005KT 21/21 A2989 RMK A01 T02110211  RH  100%=      5-min Rain = 0
KDO1 231044Z 12006KT 21/21 A2989 RMK A01 T02110211  RH  100%=      5-min Rain = 0
KDO1 231045Z 12008KT 21/21 A2989 RMK A01 T02110211  RH  100%=      5-min Rain = 0
KDO1 231046Z 13007KT 21/21 A2989 RMK A01 T02120212  RH  100%=      5-min Rain = 0
KDO1 231047Z 11005KT 21/21 A2989 RMK A01 T02120212  RH  100%=      5-min Rain = 0
KDO1 231048Z 13006KT 21/21 A2989 RMK A01 T02120212  RH  100%=      5-min Rain = 0
KDO1 231049Z 13007KT 21/21 A2989 RMK A01 T02120212  RH  100%=      5-min Rain = 0
KDO1 231050Z 12006KT 21/21 A2989 RMK A01 T02120212  RH  100%=      5-min Rain = 0
KDO1 231051Z 10007KT 21/21 A2989 RMK A01 T02120212  RH  100%=      5-min Rain = 0
KDO1 231052Z 11007KT 21/21 A2989 RMK A01 T02120212  RH  100%=      5-min Rain = 0
KDO1 231053Z 11008KT 21/21 A2989 RMK A01 T02120212  RH  100%=      5-min Rain = 0
KDO1 231054Z 11008KT 21/21 A2989 RMK A01 T02110211  RH  100%=      5-min Rain = 0
KDO1 231055Z 11007KT 21/21 A2989 RMK A01 T02110211  RH  100%=      5-min Rain = 0
KDO1 231056Z 12006KT 21/21 A2989 RMK A01 T02110211  RH  100%=      5-min Rain = 0
KDO1 231057Z 12006KT 21/21 A2989 RMK A01 T02110211  RH  100%=      5-min Rain = 0
KDO1 231058Z 11006KT 21/21 A2989 RMK A01 T02110211  RH  100%=      5-min Rain = 0
KDO1 231059Z 11006KT 21/21 A2989 RMK A01 T02110211  RH  100%=      5-min Rain = 0
KDO1 231100Z 11006KT 21/21 A2989 RMK A01 T02100211  RH  100%=      5-min Rain = 0
KDO1 231101Z 11008KT 21/21 A2989 RMK A01 T02100210  RH  100%=      5-min Rain = 0
KDO1 231102Z 11006KT 21/21 A2989 RMK A01 T02100210  RH  100%=      5-min Rain = 0
KDO1 231103Z 11006KT 21/21 A2989 RMK A01 T02100210  RH  100%=      5-min Rain = 0
KDO1 231104Z 12006KT 21/21 A2989 RMK A01 T02100210  RH  100%=      5-min Rain = 0
KDO1 231105Z 13005KT 21/21 A2989 RMK A01 T02100210  RH  100%=      5-min Rain = 0
KDO1 231106Z 12006KT 21/21 A2989 RMK A01 T02100210  RH  100%=      5-min Rain = 0
KDO1 231107Z 12005KT 21/21 A2989 RMK A01 T02100210  RH  100%=      5-min Rain = 0
KDO1 231108Z 13005KT 21/21 A2989 RMK A01 T02100210  RH  100%=      5-min Rain = 0
KDO1 231109Z 13006KT 21/21 A2989 RMK A01 T02100210  RH  100%=      5-min Rain = 0
KDO1 231110Z 12006KT 21/21 A2989 RMK A01 T02100210  RH  100%=      5-min Rain = 0
KDO1 231111Z 12006KT 21/21 A2989 RMK A01 T02100210  RH  100%=      5-min Rain = 0
KDO1 231112Z 12007KT 21/21 A2989 RMK A01 T02100210  RH  100%=      5-min Rain = 0
KDO1 231113Z 12006KT 21/21 A299 RMK A01 T02100210  RH  100%=      5-min Rain = 0
KDO1 231114Z 12008KT 21/21 A299 RMK A01 T02100210  RH  100%=      5-min Rain = 0
KDO1 231115Z 12008KT 21/21 A299 RMK A01 T02100210  RH  100%=      5-min Rain = 0
KDO1 231116Z 12008KT 21/21 A299 RMK A01 T02100210  RH  100%=      5-min Rain = 0
KDO1 231117Z 12008KT 21/21 A299 RMK A01 T02100210  RH  100%=      5-min Rain = 0
KDO1 231118Z 11007KT 21/21 A299 RMK A01 T02100210  RH  100%=      5-min Rain = 0
KDO1 231119Z 11006KT 21/21 A299 RMK A01 T02100210  RH  100%=      5-min Rain = 0
KDO1 231120Z 11007KT 21/21 A299 RMK A01 T02100210  RH  100%=      5-min Rain = 0
KDO1 231121Z 12005KT 21/21 A299 RMK A01 T02100210  RH  100%=      5-min Rain = 0
KDO1 231122Z 12007KT 21/21 A299 RMK A01 T02100210  RH  100%=      5-min Rain = 0
KDO1 231123Z 12006KT 21/21 A299 RMK A01 T02100210  RH  100%=      5-min Rain = 0
KDO1 231124Z 12006KT 21/21 A299 RMK A01 T02100210  RH  100%=      5-min Rain = 0
KDO1 231125Z 11007KT 21/21 A299 RMK A01 T02100210  RH  100%=      5-min Rain = 0
KDO1 231126Z 11006KT 21/21 A299 RMK A01 T02100210  RH  100%=      5-min Rain = 0
KDO1 231127Z 11006KT 21/21 A299 RMK A01 T02100210  RH  100%=      5-min Rain = 0
KDO1 231128Z 11007KT 21/21 A299 RMK A01 T02100210  RH  100%=      5-min Rain = 0
KDO1 231129Z 12007KT 21/21 A299 RMK A01 T02100210  RH  100%=      5-min Rain = 0
KDO1 231130Z 11006KT 21/21 A299 RMK A01 T02100210  RH  100%=      5-min Rain = 0
KDO1 231131Z 11006KT 21/21 A299 RMK A01 T02100210  RH  100%=      5-min Rain = 0
KDO1 231132Z 11007KT 21/21 A299 RMK A01 T02100210  RH  100%=      5-min Rain = 0
KDO1 231133Z 11008KT 21/21 A299 RMK A01 T02100210  RH  100%=      5-min Rain = 0
KDO1 231134Z 11007KT 21/21 A299 RMK A01 T02100210  RH  100%=      5-min Rain = 0
KDO1 231135Z 11008KT 21/21 A2991 RMK A01 T02100210  RH  100%=      5-min Rain = 0
KDO1 231136Z 12008KT 21/21 A2991 RMK A01 T02100210  RH  100%=      5-min Rain = 0
KDO1 231137Z 12007KT 21/21 A2991 RMK A01 T02100210  RH  100%=      5-min Rain = 0
KDO1 231138Z 11006KT 21/21 A2991 RMK A01 T02100210  RH  100%=      5-min Rain = 0
KDO1 231139Z 11007KT 21/21 A2991 RMK A01 T02100210  RH  100%=      5-min Rain = 0
KDO1 231140Z 11008KT 21/21 A2991 RMK A01 T02100210  RH  100%=      5-min Rain = 0
KDO1 231141Z 11008KT 21/21 A2991 RMK A01 T02100210  RH  100%=      5-min Rain = 0
KDO1 231142Z 11009KT 21/21 A2991 RMK A01 T02100210  RH  100%=      5-min Rain = 0
KDO1 231143Z 11008KT 21/21 A2991 RMK A01 T02100210  RH  100%=      5-min Rain = 0
KDO1 231144Z 11008KT 21/21 A2991 RMK A01 T02100210  RH  100%=      5-min Rain = 0
KDO1 231145Z 11008KT 21/21 A2991 RMK A01 T02100210  RH  100%=      5-min Rain = 0
KDO1 231146Z 11007KT 21/21 A2991 RMK A01 T02100210  RH  100%=      5-min Rain = 0
KDO1 231147Z 11009KT 21/21 A2991 RMK A01 T02100210  RH  100%=      5-min Rain = 0
KDO1 231148Z 11007KT 21/21 A2991 RMK A01 T02100210  RH  100%=      5-min Rain = 0
KDO1 231149Z 12006KT 21/21 A2991 RMK A01 T02100210  RH  100%=      5-min Rain = 0
KDO1 231150Z 11006KT 21/21 A2991 RMK A01 T02100210  RH  100%=      5-min Rain = 0
KDO1 231151Z 12007KT 21/21 A2991 RMK A01 T02100210  RH  100%=      5-min Rain = 0
KDO1 231152Z 12006KT 21/21 A2991 RMK A01 T02100210  RH  100%=      5-min Rain = 0
KDO1 231153Z 11008KT 21/21 A2991 RMK A01 T02100210  RH  100%=      5-min Rain = 0
KDO1 231154Z 11007KT 21/21 A2991 RMK A01 T02100210  RH  100%=      5-min Rain = 0
KDO1 231155Z 11006KT 21/21 A2991 RMK A01 T02100210  RH  100%=      5-min Rain = 0
KDO1 231156Z 11007KT 21/21 A2991 RMK A01 T02100210  RH  100%=      5-min Rain = 0
KDO1 231157Z 12007KT 21/21 A2991 RMK A01 T02100210  RH  100%=      5-min Rain = 0
KDO1 231158Z 12007KT 21/21 A2991 RMK A01 T02100210  RH  100%=      5-min Rain = 0
KDO1 231159Z 11007KT 21/21 A2991 RMK A01 T02100210  RH  100%=      5-min Rain = 0
KDO1 231200Z 12007KT 21/21 A2991 RMK A01 T02100210  RH  100%=      5-min Rain = 0
KDO1 231201Z 12008KT 21/21 A2991 RMK A01 T02100210  RH  100%=      5-min Rain = 0
KDO1 231202Z 12008KT 21/21 A2991 RMK A01 T02100210  RH  100%=      5-min Rain = 0
KDO1 231203Z 12007KT 21/21 A2991 RMK A01 T02110211  RH  100%=      5-min Rain = 0
KDO1 231204Z 12006KT 21/21 A2991 RMK A01 T02100210  RH  100%=      5-min Rain = 0
KDO1 231205Z 11008KT 21/21 A2991 RMK A01 T02100210  RH  100%=      5-min Rain = 0
KDO1 231206Z 12007KT 21/21 A2991 RMK A01 T02100210  RH  100%=      5-min Rain = 0
KDO1 231207Z 12006KT 21/21 A2991 RMK A01 T02100210  RH  100%=      5-min Rain = 0
KDO1 231208Z 12007KT 21/21 A2991 RMK A01 T02100210  RH  100%=      5-min Rain = 0
KDO1 231209Z 12011KT 21/21 A2991 RMK A01 T02110211  RH  100%=      5-min Rain = 0
KDO1 231210Z 12009KT 21/21 A2992 RMK A01 T02110211  RH  100%=      5-min Rain = 0
KDO1 231211Z 12008KT 21/21 A2992 RMK A01 T02110211  RH  100%=      5-min Rain = 0
KDO1 231212Z 12009KT 21/21 A2992 RMK A01 T02110211  RH  100%=      5-min Rain = 0
KDO1 231213Z 12008KT 21/21 A2992 RMK A01 T02110212  RH  100%=      5-min Rain = 0
KDO1 231214Z 12007KT 21/21 A2992 RMK A01 T02110211  RH  100%=      5-min Rain = 0
KDO1 231215Z 13010KT 21/21 A2992 RMK A01 T02110211  RH  100%=      5-min Rain = 0
KDO1 231216Z 12007KT 21/21 A2992 RMK A01 T02110211  RH  100%=      5-min Rain = 0
KDO1 231217Z 13007KT 21/21 A2992 RMK A01 T02110211  RH  100%=      5-min Rain = 0
KDO1 231218Z 13007KT 21/21 A2992 RMK A01 T02120212  RH  100%=      5-min Rain = 0
KDO1 231219Z 12008KT 21/21 A2992 RMK A01 T02120212  RH  100%=      5-min Rain = 0
KDO1 231220Z 12009KT 21/21 A2992 RMK A01 T02120212  RH  100%=      5-min Rain = 0
KDO1 231221Z 13010KT 21/21 A2992 RMK A01 T02120212  RH  100%=      5-min Rain = 0
KDO1 231222Z 12008KT 21/21 A2992 RMK A01 T02120212  RH  100%=      5-min Rain = 0
KDO1 231223Z 12008KT 21/21 A2992 RMK A01 T02120212  RH  100%=      5-min Rain = 0
KDO1 231224Z 13010KT 21/21 A2992 RMK A01 T02120212  RH  100%=      5-min Rain = 0
KDO1 231225Z 13007KT 21/21 A2992 RMK A01 T02120212  RH  100%=      5-min Rain = 0
KDO1 231226Z 12008KT 21/21 A2992 RMK A01 T02120212  RH  100%=      5-min Rain = 0
KDO1 231227Z 12008KT 21/21 A2992 RMK A01 T02120212  RH  100%=      5-min Rain = 0
KDO1 231228Z 12010KT 21/21 A2992 RMK A01 T02120212  RH  100%=      5-min Rain = 0
KDO1 231229Z 12011KT 21/21 A2992 RMK A01 T02120212  RH  100%=      5-min Rain = 0
KDO1 231230Z 13011KT 21/21 A2992 RMK A01 T02120212  RH  100%=      5-min Rain = 0
KDO1 231231Z 13010KT 21/21 A2992 RMK A01 T02120212  RH  100%=      5-min Rain = 0
KDO1 231232Z 12009KT 21/21 A2992 RMK A01 T02120212  RH  100%=      5-min Rain = 0
KDO1 231233Z 13007KT 21/21 A2992 RMK A01 T02120213  RH  100%=      5-min Rain = 0
KDO1 231234Z 12010KT 21/21 A2992 RMK A01 T02120212  RH  100%=      5-min Rain = 0
KDO1 231235Z 12010KT 21/21 A2992 RMK A01 T02120212  RH  100%=      5-min Rain = 0
KDO1 231236Z 11011KT 21/21 A2992 RMK A01 T02120212  RH  100%=      5-min Rain = 0
KDO1 231237Z 12010KT 21/21 A2992 RMK A01 T02120212  RH  100%=      5-min Rain = 0
KDO1 231238Z 11010KT 21/21 A2992 RMK A01 T02120212  RH  100%=      5-min Rain = 0
KDO1 231239Z 12012KT 21/21 A2992 RMK A01 T02120212  RH  100%=      5-min Rain = 0
KDO1 231240Z 12010KT 21/21 A2992 RMK A01 T02120212  RH  100%=      5-min Rain = 0
KDO1 231241Z 12009KT 21/21 A2992 RMK A01 T02130213  RH  100%=      5-min Rain = 0
KDO1 231242Z 11011KT 21/21 A2992 RMK A01 T02130213  RH  100%=      5-min Rain = 0
KDO1 231243Z 12010KT 21/21 A2992 RMK A01 T02130213  RH  100%=      5-min Rain = 0
KDO1 231244Z 13010KT 21/21 A2992 RMK A01 T02130213  RH  100%=      5-min Rain = 0
KDO1 231245Z 12008KT 21/21 A2992 RMK A01 T02130213  RH  100%=      5-min Rain = 0
KDO1 231246Z 12008KT 21/21 A2992 RMK A01 T02130213  RH  100%=      5-min Rain = 0
KDO1 231247Z 12008KT 21/21 A2992 RMK A01 T02130213  RH  100%=      5-min Rain = 0
KDO1 231248Z 12008KT 21/21 A2992 RMK A01 T02130213  RH  100%=      5-min Rain = 0
KDO1 231249Z 12010KT 21/21 A2992 RMK A01 T02130213  RH  100%=      5-min Rain = 0
KDO1 231250Z 12010KT 21/21 A2992 RMK A01 T02130213  RH  100%=      5-min Rain = 0
KDO1 231251Z 12010KT 21/21 A2992 RMK A01 T02130213  RH  100%=      5-min Rain = 0
KDO1 231252Z 13010KT 21/21 A2992 RMK A01 T02130213  RH  100%=      5-min Rain = 0
KDO1 231253Z 12010KT 21/21 A2992 RMK A01 T02140214  RH  100%=      5-min Rain = 0
KDO1 231254Z 13010KT 21/21 A2992 RMK A01 T02140214  RH  100%=      5-min Rain = 0
KDO1 231255Z 13010KT 21/21 A2992 RMK A01 T02140214  RH  100%=      5-min Rain = 0
KDO1 231256Z 13011KT 21/21 A2992 RMK A01 T02140214  RH  100%=      5-min Rain = 0
KDO1 231257Z 12010KT 21/22 A2992 RMK A01 T02140215  RH  100%=      5-min Rain = 0
KDO1 231258Z 12012KT 21/22 A2992 RMK A01 T02140215  RH  100%=      5-min Rain = 0
KDO1 231259Z 13011KT 22/22 A2992 RMK A01 T02150215  RH  100%=      5-min Rain = 0
KDO1 231300Z 13011KT 21/21 A2992 RMK A01 T02140214  RH  100%=      5-min Rain = 0
KDO1 231301Z 13009KT 22/22 A2992 RMK A01 T02150215  RH  100%=      5-min Rain = 0
KDO1 231302Z 13007KT 21/21 A2992 RMK A01 T02140214  RH  100%=      5-min Rain = 0
KDO1 231303Z 14007KT 22/22 A2993 RMK A01 T02150215  RH  100%=      5-min Rain = 0
KDO1 231304Z 14006KT 21/22 A2993 RMK A01 T02140215  RH  100%=      5-min Rain = 0
KDO1 231305Z 12009KT 21/22 A2993 RMK A01 T02140215  RH  100%=      5-min Rain = 0
KDO1 231306Z 14007KT 22/22 A2992 RMK A01 T02150215  RH  100%=      5-min Rain = 0
KDO1 231307Z 14005KT 21/22 A2992 RMK A01 T02140215  RH  100%=      5-min Rain = 0
KDO1 231308Z 14005KT 22/22 A2992 RMK A01 T02150215  RH  100%=      5-min Rain = 0
KDO1 231309Z 14009KT 22/22 A2992 RMK A01 T02150215  RH  100%=      5-min Rain = 0
KDO1 231310Z 13007KT 22/22 A2992 RMK A01 T02150215  RH  100%=      5-min Rain = 0
KDO1 231311Z 14011KT 22/22 A2992 RMK A01 T02150215  RH  100%=      5-min Rain = 0
KDO1 231312Z 13009KT 22/22 A2992 RMK A01 T02150215  RH  100%=      5-min Rain = 0
KDO1 231313Z 12011KT 22/22 A2992 RMK A01 T02160216  RH  100%=      5-min Rain = 0
KDO1 231314Z 13010KT 22/22 A2992 RMK A01 T02160216  RH  100%=      5-min Rain = 0
KDO1 231315Z 11010KT 22/22 A2992 RMK A01 T02160216  RH  100%=      5-min Rain = 0
KDO1 231316Z 12011G16KT 22/22 A2992 RMK A01 T02160216  RH  100%=      5-min Rain = 0
KDO1 231317Z 13010KT 22/22 A2992 RMK A01 T02160216  RH  100%=      5-min Rain = 0
KDO1 231318Z 13012KT 22/22 A2992 RMK A01 T02160216  RH  100%=      5-min Rain = 0
KDO1 231319Z 13011KT 22/22 A2992 RMK A01 T02160217  RH  100%=      5-min Rain = 0
KDO1 231320Z 12012KT 22/22 A2992 RMK A01 T02170217  RH  100%=      5-min Rain = 0
KDO1 231321Z 13014KT 22/22 A2992 RMK A01 T02170217  RH  100%=      5-min Rain = 0
KDO1 231322Z 12011KT 22/22 A2992 RMK A01 T02180218  RH  100%=      5-min Rain = 0
KDO1 231323Z 12009KT 22/22 A2992 RMK A01 T02190219  RH  100%=      5-min Rain = 0
KDO1 231324Z 12010KT 22/22 A2992 RMK A01 T02190219  RH  100%=      5-min Rain = 0
KDO1 231325Z 12011KT 22/22 A2992 RMK A01 T02200220  RH  100%=      5-min Rain = 0
KDO1 231326Z 12010KT 22/22 A2992 RMK A01 T02200220  RH  100%=      5-min Rain = 0
KDO1 231327Z 12011KT 22/22 A2992 RMK A01 T02190220  RH  100%=      5-min Rain = 0
KDO1 231328Z 14010KT 22/22 A2992 RMK A01 T02190220  RH  100%=      5-min Rain = 0
KDO1 231329Z 13010G15KT 22/22 A2992 RMK A01 T02200220  RH  100%=      5-min Rain = 0
KDO1 231330Z 13011KT 22/22 A2992 RMK A01 T02200220  RH  100%=      5-min Rain = 0
KDO1 231331Z 13010KT 22/22 A2992 RMK A01 T02190220  RH  100%=      5-min Rain = 0
KDO1 231332Z 13011KT 22/22 A2992 RMK A01 T02190220  RH  100%=      5-min Rain = 0
KDO1 231333Z 12011KT 22/22 A2992 RMK A01 T02200220  RH  100%=      5-min Rain = 0
KDO1 231334Z 13012KT 22/22 A2992 RMK A01 T02190220  RH  100%=      5-min Rain = 0
KDO1 231335Z 13010KT 22/22 A2992 RMK A01 T02200220  RH  100%=      5-min Rain = 0
KDO1 231336Z 13013KT 22/22 A2992 RMK A01 T02200220  RH  100%=      5-min Rain = 0
KDO1 231337Z 13013KT 22/22 A2992 RMK A01 T02190220  RH  100%=      5-min Rain = 0
KDO1 231338Z 12013KT 22/22 A2992 RMK A01 T02200220  RH  100%=      5-min Rain = 0
KDO1 231339Z 13013KT 22/22 A2992 RMK A01 T02200220  RH  100%=      5-min Rain = 0
KDO1 231340Z 13011KT 22/22 A2992 RMK A01 T02200220  RH  100%=      5-min Rain = 0
KDO1 231341Z 12012KT 22/22 A2992 RMK A01 T02200220  RH  100%=      5-min Rain = 0
KDO1 231342Z 13011KT 22/22 A2992 RMK A01 T02200220  RH  100%=      5-min Rain = 0
KDO1 231343Z 12010KT 22/22 A2992 RMK A01 T02200220  RH  100%=      5-min Rain = 0
KDO1 231344Z 13011KT 22/22 A2992 RMK A01 T02210221  RH  100%=      5-min Rain = 0
KDO1 231345Z 12012KT 22/22 A2992 RMK A01 T02210221  RH  100%=      5-min Rain = 0
KDO1 231346Z 12014KT 22/22 A2992 RMK A01 T02210221  RH  100%=      5-min Rain = 0
KDO1 231347Z 12014KT 22/22 A2992 RMK A01 T02210221  RH  100%=      5-min Rain = 0
KDO1 231348Z 12012KT 22/22 A2992 RMK A01 T02210221  RH  100%=      5-min Rain = 0
KDO1 231349Z 12010KT 22/22 A2992 RMK A01 T02210221  RH  100%=      5-min Rain = 0
KDO1 231350Z 13011KT 22/22 A2992 RMK A01 T02210222  RH  100%=      5-min Rain = 0
KDO1 231351Z 12012KT 22/22 A2992 RMK A01 T02210222  RH  100%=      5-min Rain = 0
KDO1 231352Z 13013KT 22/22 A2992 RMK A01 T02210221  RH  100%=      5-min Rain = 0
KDO1 231353Z 13011KT 22/22 A2991 RMK A01 T02210221  RH  100%=      5-min Rain = 0
KDO1 231354Z 12010KT 22/22 A2991 RMK A01 T02220222  RH  100%=      5-min Rain = 0
KDO1 231355Z 12009KT 22/22 A2991 RMK A01 T02220222  RH  100%=      5-min Rain = 0
KDO1 231356Z 12009G14KT 22/22 A2991 RMK A01 T02220222  RH  100%=      5-min Rain = 0
KDO1 231357Z 12013KT 22/22 A2991 RMK A01 T02220223  RH  100%=      5-min Rain = 0
KDO1 231358Z 12012KT 22/22 A2992 RMK A01 T02220222  RH  100%=      5-min Rain = 0
KDO1 231359Z 12011KT 22/22 A2991 RMK A01 T02220223  RH  100%=      5-min Rain = 0
KDO1 231400Z 12008KT 22/22 A2991 RMK A01 T02220222  RH  100%=      5-min Rain = 0
KDO1 231401Z 13010KT 22/22 A2991 RMK A01 T02220222  RH  100%=      5-min Rain = 0
KDO1 231402Z 13010KT 22/22 A2991 RMK A01 T02220222  RH  100%=      5-min Rain = 0
KDO1 231403Z 12010KT 22/22 A2991 RMK A01 T02220222  RH  100%=      5-min Rain = 0
KDO1 231404Z 12013KT 22/22 A2991 RMK A01 T02220222  RH  100%=      5-min Rain = 0
KDO1 231405Z 13013G19KT 22/22 A2991 RMK A01 T02220222  RH  100%=      5-min Rain = 0
KDO1 231406Z 13014KT 22/22 A2991 RMK A01 T02220222  RH  100%=      5-min Rain = 0
KDO1 231407Z 13013KT 22/22 A2991 RMK A01 T02220222  RH  100%=      5-min Rain = 0
KDO1 231408Z 13013KT 22/22 A2991 RMK A01 T02220222  RH  100%=      5-min Rain = 0
KDO1 231409Z 13011KT 22/22 A2992 RMK A01 T02220222  RH  100%=      5-min Rain = 0
KDO1 231410Z 14011KT 22/22 A2992 RMK A01 T02220222  RH  100%=      5-min Rain = 0
KDO1 231411Z 13012KT 22/22 A2992 RMK A01 T02210221  RH  100%=      5-min Rain = 0
KDO1 231412Z 13014KT 22/22 A2992 RMK A01 T02210221  RH  100%=      5-min Rain = 0
KDO1 231413Z 13011KT 22/22 A2992 RMK A01 T02210222  RH  100%=      5-min Rain = 0
KDO1 231414Z 13011KT 22/22 A2992 RMK A01 T02210221  RH  100%=      5-min Rain = 0
KDO1 231415Z 13012G17KT 22/22 A2992 RMK A01 T02210221  RH  100%=      5-min Rain = 0
KDO1 231416Z 13013KT 22/22 A2992 RMK A01 T02210222  RH  100%=      5-min Rain = 0
KDO1 231417Z 13011KT 22/22 A2992 RMK A01 T02220222  RH  100%=      5-min Rain = 0
KDO1 231418Z 12012KT 22/22 A2992 RMK A01 T02220222  RH  100%=      5-min Rain = 0
KDO1 231419Z 12015KT 22/22 A2992 RMK A01 T02230223  RH  100%=      5-min Rain = 0
KDO1 231420Z 13011KT 22/22 A2992 RMK A01 T02230223  RH  100%=      5-min Rain = 0
KDO1 231421Z 12016KT 22/22 A2992 RMK A01 T02220223  RH  100%=      5-min Rain = 0
KDO1 231422Z 12013KT 22/22 A2992 RMK A01 T02230223  RH  100%=      5-min Rain = 0
KDO1 231423Z 13014KT 22/22 A2992 RMK A01 T02230223  RH  100%=      5-min Rain = 0
KDO1 231424Z 12012KT 22/22 A2992 RMK A01 T02230223  RH  100%=      5-min Rain = 0
KDO1 231425Z 13014KT 22/22 A2992 RMK A01 T02230223  RH  100%=      5-min Rain = 0
KDO1 231426Z 13013KT 22/22 A2992 RMK A01 T02240224  RH  100%=      5-min Rain = 0
KDO1 231427Z 12012KT 22/22 A2992 RMK A01 T02240224  RH  100%=      5-min Rain = 0
KDO1 231428Z 13012KT 22/22 A2992 RMK A01 T02240224  RH  100%=      5-min Rain = 0
KDO1 231429Z 12015KT 22/22 A2992 RMK A01 T02240224  RH  100%=      5-min Rain = 0
KDO1 231430Z 13015KT 22/22 A2992 RMK A01 T02240224  RH  100%=      5-min Rain = 0
KDO1 231431Z 12013KT 22/22 A2992 RMK A01 T02240224  RH  100%=      5-min Rain = 0
KDO1 231432Z 12011KT 22/22 A2992 RMK A01 T02240224  RH  100%=      5-min Rain = 0
KDO1 231433Z 13014KT 22/22 A2992 RMK A01 T02240224  RH  100%=      5-min Rain = 0
KDO1 231434Z 12015KT 23/23 A2991 RMK A01 T02250225  RH  100%=      5-min Rain = 0
KDO1 231435Z 13015KT 23/23 A2991 RMK A01 T02250225  RH  100%=      5-min Rain = 0
KDO1 231436Z 12013KT 23/23 A2991 RMK A01 T02250225  RH  100%=      5-min Rain = 0
KDO1 231437Z 13013KT 23/23 A2991 RMK A01 T02250225  RH  100%=      5-min Rain = 0
KDO1 231438Z 12010KT 23/23 A2992 RMK A01 T02260226  RH  100%=      5-min Rain = 0
KDO1 231439Z 13013KT 23/23 A2992 RMK A01 T02260226  RH  100%=      5-min Rain = 0
KDO1 231440Z 13015KT 23/23 A2992 RMK A01 T02270227  RH  100%=      5-min Rain = 0
KDO1 231441Z 13011KT 23/23 A2992 RMK A01 T02270227  RH  100%=      5-min Rain = 0
KDO1 231442Z 13012G18KT 23/23 A2992 RMK A01 T02280228  RH  100%=      5-min Rain = 0
KDO1 231443Z 13013KT 23/23 A2992 RMK A01 T02280228  RH  100%=      5-min Rain = 0
KDO1 231444Z 12012KT 23/23 A2992 RMK A01 T02280228  RH  100%=      5-min Rain = 0
KDO1 231445Z 12015G20KT 23/23 A2992 RMK A01 T02280228  RH  100%=      5-min Rain = 0
KDO1 231446Z 13012KT 23/23 A2992 RMK A01 T02280228  RH  100%=      5-min Rain = 0
KDO1 231447Z 12016KT 23/23 A2992 RMK A01 T02280228  RH  100%=      5-min Rain = 0
KDO1 231448Z 13013KT 23/23 A2992 RMK A01 T02270227  RH  100%=      5-min Rain = 0
KDO1 231449Z 13013KT 23/23 A2992 RMK A01 T02270227  RH  100%=      5-min Rain = 0
KDO1 231450Z 13016G21KT 23/23 A2992 RMK A01 T02260227  RH  100%=      5-min Rain = 0
KDO1 231451Z 13014KT 23/23 A2992 RMK A01 T02260226  RH  100%=      5-min Rain = 0
KDO1 231452Z 13013KT 23/23 A2992 RMK A01 T02260226  RH  100%=      5-min Rain = 0
KDO1 231453Z 14011KT 23/23 A2992 RMK A01 T02260226  RH  100%=      5-min Rain = 0
KDO1 231454Z 13011KT 23/23 A2992 RMK A01 T02260226  RH  100%=      5-min Rain = 0
KDO1 231455Z 13012KT 23/23 A2992 RMK A01 T02260226  RH  100%=      5-min Rain = 0
KDO1 231456Z 14013G20KT 23/23 A2992 RMK A01 T02260226  RH  100%=      5-min Rain = 0
KDO1 231457Z 14015G21KT 23/23 A2992 RMK A01 T02260226  RH  100%=      5-min Rain = 0
KDO1 231458Z 14014KT 23/23 A2992 RMK A01 T02260226  RH  100%=      5-min Rain = 0
KDO1 231459Z 13015KT 23/23 A2992 RMK A01 T02260226  RH  100%=      5-min Rain = 0
KDO1 231500Z 14016KT 23/23 A2992 RMK A01 T02260226  RH  100%=      5-min Rain = 0
KDO1 231501Z 14014KT 23/23 A2992 RMK A01 T02260226  RH  100%=      5-min Rain = 0
KDO1 231502Z 13013KT 23/23 A2992 RMK A01 T02260226  RH  100%=      5-min Rain = 0
KDO1 231503Z 13012KT 23/23 A2992 RMK A01 T02260226  RH  100%=      5-min Rain = 0
KDO1 231504Z 13016KT 23/23 A2992 RMK A01 T02260226  RH  100%=      5-min Rain = 0
KDO1 231505Z 13013KT 23/23 A2992 RMK A01 T02260226  RH  100%=      5-min Rain = 0
KDO1 231506Z 13011G16KT 23/23 A2991 RMK A01 T02260226  RH  100%=      5-min Rain = 0
KDO1 231507Z 14017KT 23/23 A2991 RMK A01 T02260226  RH  100%=      5-min Rain = 0
KDO1 231508Z 14014KT 23/23 A2991 RMK A01 T02260226  RH  100%=      5-min Rain = 0
KDO1 231509Z 14013KT 23/23 A2991 RMK A01 T02270227  RH  100%=      5-min Rain = 0
KDO1 231510Z 14014G19KT 23/23 A2991 RMK A01 T02270227  RH  100%=      5-min Rain = 0
KDO1 231511Z 14014KT 23/23 A2991 RMK A01 T02280228  RH  100%=      5-min Rain = 0
KDO1 231512Z 13015KT 23/23 A2991 RMK A01 T02280228  RH  100%=      5-min Rain = 0
KDO1 231513Z 13016KT 23/23 A2991 RMK A01 T02290227  RH  099%=      5-min Rain = 0
KDO1 231514Z 13012KT 23/23 A2991 RMK A01 T02290227  RH  099%=      5-min Rain = 0
KDO1 231515Z 13015KT 23/23 A2991 RMK A01 T02290227  RH  099%=      5-min Rain = 0
KDO1 231516Z 14015KT 23/23 A2991 RMK A01 T02300227  RH  099%=      5-min Rain = 0
KDO1 231517Z 14013G18KT 23/23 A2991 RMK A01 T02300228  RH  098%=      5-min Rain = 0
KDO1 231518Z 13013KT 23/23 A2991 RMK A01 T02310228  RH  098%=      5-min Rain = 0
KDO1 231519Z 14011KT 23/23 A2991 RMK A01 T02320229  RH  098%=      5-min Rain = 0
KDO1 231520Z 14012KT 23/23 A2991 RMK A01 T02330229  RH  098%=      5-min Rain = 0
KDO1 231521Z 14015KT 23/23 A2991 RMK A01 T02330229  RH  097%=      5-min Rain = 0
KDO1 231522Z 13014KT 23/23 A2991 RMK A01 T02330228  RH  097%=      5-min Rain = 0
KDO1 231523Z 13015KT 23/23 A2991 RMK A01 T02330228  RH  097%=      5-min Rain = 0
KDO1 231524Z 14016G22KT 23/23 A2991 RMK A01 T02330228  RH  097%=      5-min Rain = 0
KDO1 231525Z 14017KT 23/23 A2991 RMK A01 T02320227  RH  097%=      5-min Rain = 0
KDO1 231526Z 13012KT 23/23 A2991 RMK A01 T02310227  RH  097%=      5-min Rain = 0
KDO1 231527Z 13010KT 23/23 A2991 RMK A01 T02310228  RH  098%=      5-min Rain = 0
KDO1 231528Z 14013G18KT 23/23 A2991 RMK A01 T02310229  RH  098%=      5-min Rain = 0
KDO1 231529Z 14014KT 23/23 A2991 RMK A01 T02310228  RH  098%=      5-min Rain = 0
KDO1 231530Z 13013KT 23/23 A2991 RMK A01 T02300227  RH  098%=      5-min Rain = 0
KDO1 231531Z 14017G23KT 23/23 A2991 RMK A01 T02300227  RH  098%=      5-min Rain = 0
KDO1 231532Z 13015KT 23/23 A2991 RMK A01 T02300227  RH  098%=      5-min Rain = 0
KDO1 231533Z 13011KT 23/23 A2991 RMK A01 T02300227  RH  098%=      5-min Rain = 0
KDO1 231534Z 13019KT 23/23 A2991 RMK A01 T02300228  RH  098%=      5-min Rain = 0
KDO1 231535Z 13018KT 23/23 A2991 RMK A01 T02300226  RH  098%=      5-min Rain = 0
KDO1 231536Z 13015G21KT 23/23 A2991 RMK A01 T02300226  RH  098%=      5-min Rain = 0
KDO1 231537Z 13014KT 23/23 A2991 RMK A01 T02300227  RH  098%=      5-min Rain = 0
KDO1 231538Z 13013KT 23/23 A2991 RMK A01 T02300227  RH  098%=      5-min Rain = 0
KDO1 231539Z 14012G19KT 23/23 A2991 RMK A01 T02300227  RH  098%=      5-min Rain = 0
KDO1 231540Z 14011G18KT 23/23 A2991 RMK A01 T02300227  RH  098%=      5-min Rain = 0
KDO1 231541Z 14012G18KT 23/23 A2991 RMK A01 T02300227  RH  098%=      5-min Rain = 0
KDO1 231542Z 13015KT 23/23 A2991 RMK A01 T02300227  RH  098%=      5-min Rain = 0
KDO1 231543Z 13015KT 23/23 A2991 RMK A01 T02300227  RH  098%=      5-min Rain = 0
KDO1 231544Z 13016KT 23/23 A2991 RMK A01 T02300226  RH  098%=      5-min Rain = 0
KDO1 231545Z 13019KT 23/23 A2991 RMK A01 T02300226  RH  098%=      5-min Rain = 0
KDO1 231546Z 13014KT 23/23 A2991 RMK A01 T02300225  RH  097%=      5-min Rain = 0
KDO1 231547Z 13011KT 23/23 A2991 RMK A01 T02300226  RH  097%=      5-min Rain = 0
KDO1 231548Z 14015G21KT 23/23 A2991 RMK A01 T02310227  RH  098%=      5-min Rain = 0
KDO1 231549Z 14013KT 23/23 A2991 RMK A01 T02310225  RH  097%=      5-min Rain = 0
KDO1 231550Z 14013KT 23/23 A2991 RMK A01 T02320227  RH  097%=      5-min Rain = 0
KDO1 231551Z 14010KT 23/23 A2991 RMK A01 T02320226  RH  097%=      5-min Rain = 0
KDO1 231552Z 13012KT 23/23 A2991 RMK A01 T02320227  RH  097%=      5-min Rain = 0
KDO1 231553Z 13011G20KT 23/23 A2991 RMK A01 T02320227  RH  097%=      5-min Rain = 0
KDO1 231554Z 14016KT 23/23 A2991 RMK A01 T02320226  RH  096%=      5-min Rain = 0
KDO1 231555Z 14014G19KT 23/23 A2991 RMK A01 T02320226  RH  096%=      5-min Rain = 0
KDO1 231556Z 14014KT 23/23 A2991 RMK A01 T02320226  RH  096%=      5-min Rain = 0
KDO1 231557Z 13013KT 23/23 A2991 RMK A01 T02330227  RH  097%=      5-min Rain = 0
KDO1 231558Z 13015KT 23/23 A2991 RMK A01 T02320226  RH  096%=      5-min Rain = 0
KDO1 231559Z 13015KT 23/23 A2991 RMK A01 T02320226  RH  096%=      5-min Rain = 0
KDO1 231600Z 13015KT 23/23 A2991 RMK A01 T02320226  RH  096%=      5-min Rain = 0
KDO1 231601Z 13013KT 23/23 A2991 RMK A01 T02320226  RH  096%=      5-min Rain = 0
KDO1 231602Z 13015KT 23/23 A2991 RMK A01 T02320226  RH  096%=      5-min Rain = 0
KDO1 231603Z 14017KT 23/23 A2991 RMK A01 T02320226  RH  096%=      5-min Rain = 0
KDO1 231604Z 14019KT 23/23 A2991 RMK A01 T02310225  RH  096%=      5-min Rain = 0
KDO1 231605Z 14013KT 23/23 A2991 RMK A01 T02310225  RH  096%=      5-min Rain = 0
KDO1 231606Z 13013KT 23/23 A2991 RMK A01 T02300225  RH  097%=      5-min Rain = 0
KDO1 231607Z 14015KT 23/23 A2991 RMK A01 T02310225  RH  097%=      5-min Rain = 0
KDO1 231608Z 14013KT 23/23 A2991 RMK A01 T02310225  RH  097%=      5-min Rain = 0
KDO1 231609Z 14018KT 23/23 A2991 RMK A01 T02310225  RH  096%=      5-min Rain = 0
KDO1 231610Z 14017KT 23/22 A2991 RMK A01 T02310223  RH  095%=      5-min Rain = 0
KDO1 231611Z 13016KT 23/22 A2991 RMK A01 T02320224  RH  095%=      5-min Rain = 0
KDO1 231612Z 15012KT 23/23 A2991 RMK A01 T02320225  RH  096%=      5-min Rain = 0
KDO1 231613Z 14012KT 23/23 A2991 RMK A01 T02320225  RH  096%=      5-min Rain = 0
KDO1 231614Z 13013KT 23/23 A2991 RMK A01 T02330225  RH  096%=      5-min Rain = 0
KDO1 231615Z 13014KT 23/23 A2991 RMK A01 T02320225  RH  096%=      5-min Rain = 0
KDO1 231616Z 14012G17KT 23/23 A2991 RMK A01 T02320226  RH  096%=      5-min Rain = 0
KDO1 231617Z 14011KT 23/23 A2991 RMK A01 T02320225  RH  096%=      5-min Rain = 0
KDO1 231618Z 14012KT 23/23 A2991 RMK A01 T02320226  RH  096%=      5-min Rain = 0
KDO1 231619Z 15010KT 23/23 A2991 RMK A01 T02320225  RH  096%=      5-min Rain = 0
KDO1 231620Z 14012KT 23/23 A2991 RMK A01 T02310225  RH  096%=      5-min Rain = 0
KDO1 231621Z 14014KT 23/23 A2991 RMK A01 T02310225  RH  096%=      5-min Rain = 0
KDO1 231622Z 14013KT 23/23 A2991 RMK A01 T02320225  RH  096%=      5-min Rain = 0
KDO1 231623Z 15014G19KT 23/22 A2991 RMK A01 T02310224  RH  096%=      5-min Rain = 0
KDO1 231624Z 13012KT 23/22 A2991 RMK A01 T02310224  RH  096%=      5-min Rain = 0
KDO1 231625Z 14013KT 23/22 A2991 RMK A01 T02310224  RH  096%=      5-min Rain = 0
KDO1 231626Z 14012KT 23/22 A2991 RMK A01 T02310224  RH  096%=      5-min Rain = 0
KDO1 231627Z 14017KT 23/22 A2991 RMK A01 T02310224  RH  096%=      5-min Rain = 0
KDO1 231628Z 14016G21KT 23/22 A2991 RMK A01 T02300223  RH  095%=      5-min Rain = 0
KDO1 231629Z 14014KT 23/22 A2991 RMK A01 T02300223  RH  096%=      5-min Rain = 0
KDO1 231630Z 14013KT 23/22 A2991 RMK A01 T02300224  RH  096%=      5-min Rain = 0
KDO1 231631Z 14016KT 23/22 A2991 RMK A01 T02300224  RH  096%=      5-min Rain = 0
KDO1 231632Z 15013KT 23/22 A2991 RMK A01 T02300224  RH  096%=      5-min Rain = 0
KDO1 231633Z 14012KT 23/22 A2991 RMK A01 T02300223  RH  096%=      5-min Rain = 0
KDO1 231634Z 14012KT 23/22 A2991 RMK A01 T02300224  RH  096%=      5-min Rain = 0
KDO1 231635Z 14015G21KT 23/22 A2991 RMK A01 T02300223  RH  096%=      5-min Rain = 0
KDO1 231636Z 14015KT 23/22 A2991 RMK A01 T02300223  RH  095%=      5-min Rain = 0
KDO1 231637Z 14015KT 23/22 A2991 RMK A01 T02300223  RH  096%=      5-min Rain = 0
KDO1 231638Z 14012KT 23/22 A2991 RMK A01 T02310223  RH  095%=      5-min Rain = 0
KDO1 231639Z 14011KT 23/22 A2991 RMK A01 T02310223  RH  095%=      5-min Rain = 0
KDO1 231640Z 14010KT 23/22 A2991 RMK A01 T02300223  RH  096%=      5-min Rain = 0
KDO1 231641Z 14011G17KT 23/22 A2991 RMK A01 T02300224  RH  096%=      5-min Rain = 0
KDO1 231642Z 15013KT 23/22 A2991 RMK A01 T02300224  RH  096%=      5-min Rain = 0
KDO1 231643Z 15013KT 23/22 A2991 RMK A01 T02300223  RH  096%=      5-min Rain = 0
KDO1 231644Z 14013G19KT 23/22 A2991 RMK A01 T02300223  RH  096%=      5-min Rain = 0
KDO1 231645Z 14014KT 23/22 A2991 RMK A01 T02300223  RH  096%=      5-min Rain = 0
KDO1 231646Z 15012KT 23/22 A2991 RMK A01 T02300223  RH  096%=      5-min Rain = 0
KDO1 231647Z 15013KT 23/22 A2991 RMK A01 T02300224  RH  096%=      5-min Rain = 0
KDO1 231648Z 14015KT 23/22 A2991 RMK A01 T02310224  RH  096%=      5-min Rain = 0
KDO1 231649Z 15017KT 23/22 A2991 RMK A01 T02300223  RH  095%=      5-min Rain = 0
KDO1 231650Z 15015G20KT 23/22 A2991 RMK A01 T02310223  RH  095%=      5-min Rain = 0
KDO1 231651Z 15013KT 23/22 A2991 RMK A01 T02310223  RH  095%=      5-min Rain = 0
KDO1 231652Z 13012KT 23/22 A2991 RMK A01 T02310224  RH  096%=      5-min Rain = 0
KDO1 231653Z 15012G17KT 23/22 A2991 RMK A01 T02310224  RH  096%=      5-min Rain = 0
KDO1 231654Z 15017G22KT 23/22 A2991 RMK A01 T02310223  RH  095%=      5-min Rain = 0
KDO1 231655Z 14015G20KT 23/22 A2991 RMK A01 T02320222  RH  094%=      5-min Rain = 0
KDO1 231656Z 15017KT 23/22 A2991 RMK A01 T02320223  RH  095%=      5-min Rain = 0
KDO1 231657Z 14015KT 23/22 A2991 RMK A01 T02320223  RH  095%=      5-min Rain = 0
KDO1 231658Z 15016KT 23/22 A2991 RMK A01 T02320223  RH  095%=      5-min Rain = 0
KDO1 231659Z 14016KT 23/22 A2991 RMK A01 T02310223  RH  095%=      5-min Rain = 0
KDO1 231700Z 15016G21KT 23/22 A2991 RMK A01 T02310223  RH  095%=      5-min Rain = 0
KDO1 231701Z 14016G21KT 23/22 A2991 RMK A01 T02310222  RH  095%=      5-min Rain = 0
KDO1 231702Z 14015G21KT 23/22 A2991 RMK A01 T02310223  RH  096%=      5-min Rain = 0
KDO1 231703Z 14016KT 23/22 A2991 RMK A01 T02300223  RH  096%=      5-min Rain = 0
KDO1 231704Z 14014G19KT 23/22 A2991 RMK A01 T02300222  RH  095%=      5-min Rain = 0
KDO1 231705Z 14014G19KT 23/22 A2991 RMK A01 T02300223  RH  096%=      5-min Rain = 0
KDO1 231706Z 15014KT 23/22 A2991 RMK A01 T02300223  RH  096%=      5-min Rain = 0
KDO1 231707Z 14013G18KT 23/22 A2991 RMK A01 T02290223  RH  096%=      5-min Rain = 0
KDO1 231708Z 14013KT 23/22 A2991 RMK A01 T02290223  RH  096%=      5-min Rain = 0
KDO1 231709Z 14014KT 23/22 A2991 RMK A01 T02290223  RH  097%=      5-min Rain = 0
KDO1 231710Z 14011G16KT 23/22 A2991 RMK A01 T02290223  RH  097%=      5-min Rain = 0
KDO1 231711Z 14015KT 23/22 A2991 RMK A01 T02290224  RH  097%=      5-min Rain = 0
KDO1 231712Z 15015KT 23/22 A2991 RMK A01 T02280224  RH  097%=      5-min Rain = 0
KDO1 231713Z 14018G23KT 23/22 A2991 RMK A01 T02280224  RH  097%=      5-min Rain = 0
KDO1 231714Z 15016G21KT 23/22 A2991 RMK A01 T02280223  RH  097%=      5-min Rain = 0
KDO1 231715Z 14012G17KT 23/22 A2991 RMK A01 T02280224  RH  097%=      5-min Rain = 0
KDO1 231716Z 14010G15KT 23/22 A2991 RMK A01 T02280224  RH  098%=      5-min Rain = 0
KDO1 231717Z 14014KT 23/23 A2991 RMK A01 T02280225  RH  098%=      5-min Rain = 0
KDO1 231718Z 15013KT 23/23 A2991 RMK A01 T02280225  RH  098%=      5-min Rain = 0
KDO1 231719Z 15016KT 23/23 A2991 RMK A01 T02280225  RH  098%=      5-min Rain = 0
KDO1 231720Z 14011KT 23/23 A2991 RMK A01 T02280225  RH  098%=      5-min Rain = 0
KDO1 231721Z 14013KT 23/23 A2991 RMK A01 T02280225  RH  098%=      5-min Rain = 0
KDO1 231722Z 14009KT 23/23 A2991 RMK A01 T02280226  RH  098%=      5-min Rain = 0
KDO1 231723Z 14015G21KT 23/23 A2991 RMK A01 T02280225  RH  098%=      5-min Rain = 0
KDO1 231724Z 15016KT 23/23 A2991 RMK A01 T02280225  RH  098%=      5-min Rain = 0
KDO1 231725Z 14015KT 23/23 A2991 RMK A01 T02280225  RH  098%=      5-min Rain = 0
KDO1 231726Z 14017G22KT 23/22 A2991 RMK A01 T02280224  RH  098%=      5-min Rain = 0
KDO1 231727Z 14014KT 23/23 A2991 RMK A01 T02280225  RH  098%=      5-min Rain = 0
KDO1 231728Z 14014KT 23/23 A2991 RMK A01 T02280225  RH  098%=      5-min Rain = 0
KDO1 231729Z 14013KT 23/23 A2991 RMK A01 T02280226  RH  098%=      5-min Rain = 0
KDO1 231730Z 13011KT 23/23 A2991 RMK A01 T02280226  RH  099%=      5-min Rain = 0
KDO1 231731Z 14014KT 23/23 A2991 RMK A01 T02280227  RH  099%=      5-min Rain = 0
KDO1 231732Z 14013KT 23/23 A2991 RMK A01 T02280226  RH  099%=      5-min Rain = 0
KDO1 231733Z 14013KT 23/23 A2991 RMK A01 T02280226  RH  099%=      5-min Rain = 0
KDO1 231734Z 14011KT 23/23 A2991 RMK A01 T02270226  RH  099%=      5-min Rain = 0
KDO1 231735Z 14016KT 23/23 A2991 RMK A01 T02270226  RH  099%=      5-min Rain = 0
KDO1 231736Z 14020KT 23/23 A2991 RMK A01 T02280225  RH  099%=      5-min Rain = 0
KDO1 231737Z 14017G22KT 23/23 A2991 RMK A01 T02270225  RH  099%=      5-min Rain = 0
KDO1 231738Z 14018G24KT 23/23 A2991 RMK A01 T02270225  RH  099%=      5-min Rain = 0
KDO1 231739Z 14015G21KT 23/23 A2991 RMK A01 T02270225  RH  098%=      5-min Rain = 0
KDO1 231740Z 14018KT 23/23 A2991 RMK A01 T02280225  RH  098%=      5-min Rain = 0
KDO1 231741Z 14016G21KT 23/23 A2991 RMK A01 T02280225  RH  098%=      5-min Rain = 0
KDO1 231742Z 14015KT 23/23 A2991 RMK A01 T02280225  RH  098%=      5-min Rain = 0
KDO1 231743Z 14014G20KT 23/23 A2991 RMK A01 T02280226  RH  099%=      5-min Rain = 0
KDO1 231744Z 14015G21KT 23/23 A2991 RMK A01 T02280225  RH  099%=      5-min Rain = 0
KDO1 231745Z 13012G19KT 23/23 A2991 RMK A01 T02270226  RH  099%=      5-min Rain = 0
KDO1 231746Z 13016KT 23/23 A2991 RMK A01 T02270226  RH  099%=      5-min Rain = 0
KDO1 231747Z 14016KT 23/23 A2991 RMK A01 T02270226  RH  099%=      5-min Rain = 0
KDO1 231748Z 14016KT 23/23 A2991 RMK A01 T02270226  RH  099%=      5-min Rain = 0
KDO1 231749Z 14011KT 23/23 A2991 RMK A01 T02270226  RH  100%=      5-min Rain = 0
KDO1 231750Z 14012G17KT 23/23 A2991 RMK A01 T02270227  RH  100%=      5-min Rain = 0
KDO1 231751Z 15013KT 23/23 A2991 RMK A01 T02270227  RH  100%=      5-min Rain = 0
KDO1 231752Z 14017KT 23/23 A2991 RMK A01 T02270227  RH  100%=      5-min Rain = 0
KDO1 231753Z 15017G23KT 23/23 A2991 RMK A01 T02260226  RH  100%=      5-min Rain = 0
KDO1 231754Z 14018KT 23/23 A2991 RMK A01 T02260225  RH  100%=      5-min Rain = 0
KDO1 231755Z 14016KT 23/23 A2991 RMK A01 T02260226  RH  100%=      5-min Rain = 0
KDO1 231756Z 14016KT 23/23 A2992 RMK A01 T02250225  RH  100%=      5-min Rain = 0
KDO1 231757Z 14019KT 23/23 A2992 RMK A01 T02250225  RH  100%=      5-min Rain = 0
KDO1 231758Z 15013KT 23/23 A2992 RMK A01 T02250225  RH  100%=      5-min Rain = 0
KDO1 231759Z 15011KT 23/23 A2992 RMK A01 T02250225  RH  100%=      5-min Rain = 0
KDO1 231800Z 15012KT 23/23 A2992 RMK A01 T02250225  RH  100%=      5-min Rain = 0
KDO1 231801Z 14011KT 23/23 A2992 RMK A01 T02250225  RH  100%=      5-min Rain = 0
KDO1 231802Z 15014G20KT 23/23 A2992 RMK A01 T02250225  RH  100%=      5-min Rain = 0
KDO1 231803Z 15016KT 23/23 A2992 RMK A01 T02250225  RH  100%=      5-min Rain = 0
KDO1 231804Z 15014KT 22/23 A2992 RMK A01 T02240225  RH  100%=      5-min Rain = 0
KDO1 231805Z 15014KT 23/23 A2992 RMK A01 T02250225  RH  100%=      5-min Rain = 0
KDO1 231806Z 14015KT 23/23 A2992 RMK A01 T02250225  RH  100%=      5-min Rain = 0
KDO1 231807Z 15017KT 22/22 A2992 RMK A01 T02240224  RH  100%=      5-min Rain = 0
KDO1 231808Z 15015KT 23/23 A2992 RMK A01 T02250225  RH  100%=      5-min Rain = 0
KDO1 231809Z 15012KT 22/23 A2992 RMK A01 T02240225  RH  100%=      5-min Rain = 0
KDO1 231810Z 15016KT 23/23 A2992 RMK A01 T02250225  RH  100%=      5-min Rain = 0
KDO1 231811Z 15013KT 22/23 A2992 RMK A01 T02240225  RH  100%=      5-min Rain = 0
KDO1 231812Z 14015G20KT 22/23 A2992 RMK A01 T02240225  RH  100%=      5-min Rain = 0
KDO1 231813Z 14015G21KT 23/23 A2992 RMK A01 T02250225  RH  100%=      5-min Rain = 0
KDO1 231814Z 14015G21KT 23/23 A2992 RMK A01 T02250225  RH  100%=      5-min Rain = 0
KDO1 231815Z 14013G18KT 23/23 A2992 RMK A01 T02250225  RH  100%=      5-min Rain = 0
KDO1 231816Z 13014G19KT 23/23 A2992 RMK A01 T02250225  RH  100%=      5-min Rain = 0
KDO1 231817Z 14014G19KT 23/23 A2992 RMK A01 T02250225  RH  100%=      5-min Rain = 0
KDO1 231818Z 15015KT 23/23 A2992 RMK A01 T02250225  RH  100%=      5-min Rain = 0
KDO1 231819Z 15012G17KT 23/23 A2992 RMK A01 T02260226  RH  100%=      5-min Rain = 0
KDO1 231820Z 15013KT 23/23 A2992 RMK A01 T02260226  RH  100%=      5-min Rain = 0
KDO1 231821Z 15013KT 23/23 A2992 RMK A01 T02250225  RH  100%=      5-min Rain = 0
KDO1 231822Z 15016KT 23/23 A2992 RMK A01 T02260226  RH  100%=      5-min Rain = 0
KDO1 231823Z 15013KT 23/23 A2992 RMK A01 T02260226  RH  100%=      5-min Rain = 0
KDO1 231824Z 15014KT 23/23 A2991 RMK A01 T02250225  RH  100%=      5-min Rain = 0
KDO1 231825Z 15017KT 23/23 A2991 RMK A01 T02260226  RH  100%=      5-min Rain = 0
KDO1 231826Z 15012G17KT 23/23 A2991 RMK A01 T02250226  RH  100%=      5-min Rain = 0
KDO1 231827Z 14012KT 23/23 A2991 RMK A01 T02250226  RH  100%=      5-min Rain = 0
KDO1 231828Z 14012G19KT 23/23 A2991 RMK A01 T02250225  RH  100%=      5-min Rain = 0
KDO1 231829Z 14016G21KT 23/23 A2991 RMK A01 T02250225  RH  100%=      5-min Rain = 0
KDO1 231830Z 14013KT 23/23 A2991 RMK A01 T02250225  RH  100%=      5-min Rain = 0
KDO1 231831Z 14013KT 23/23 A2991 RMK A01 T02250225  RH  100%=      5-min Rain = 0
KDO1 231832Z 15010KT 23/23 A2991 RMK A01 T02250225  RH  100%=      5-min Rain = 0
KDO1 231833Z 14012KT 22/23 A2991 RMK A01 T02240225  RH  100%=      5-min Rain = 0
KDO1 231834Z 15012G17KT 23/23 A2991 RMK A01 T02250225  RH  100%=      5-min Rain = 0
KDO1 231835Z 15011G16KT 22/23 A2991 RMK A01 T02240225  RH  100%=      5-min Rain = 0
KDO1 231836Z 15011KT 22/23 A2991 RMK A01 T02240225  RH  100%=      5-min Rain = 0
KDO1 231837Z 14013KT 22/23 A2991 RMK A01 T02240225  RH  100%=      5-min Rain = 0
KDO1 231838Z 14013KT 23/23 A2991 RMK A01 T02250225  RH  100%=      5-min Rain = 0
KDO1 231839Z 15015KT 23/23 A2991 RMK A01 T02250225  RH  100%=      5-min Rain = 0
KDO1 231840Z 15013KT 23/23 A2991 RMK A01 T02250225  RH  100%=      5-min Rain = 0
KDO1 231841Z 15011G17KT 22/22 A2991 RMK A01 T02240224  RH  100%=      5-min Rain = 0
KDO1 231842Z 14013KT 22/23 A2991 RMK A01 T02240225  RH  100%=      5-min Rain = 0
KDO1 231843Z 14015G21KT 23/23 A2991 RMK A01 T02250225  RH  100%=      5-min Rain = 0
KDO1 231844Z 15016KT 23/23 A2991 RMK A01 T02250225  RH  100%=      5-min Rain = 0
KDO1 231845Z 15015KT 23/23 A2991 RMK A01 T02250225  RH  100%=      5-min Rain = 0
KDO1 231846Z 15017KT 23/23 A2991 RMK A01 T02250225  RH  100%=      5-min Rain = 0
KDO1 231847Z 15015KT 23/23 A2991 RMK A01 T02260226  RH  100%=      5-min Rain = 0
KDO1 231848Z 14015KT 23/23 A2991 RMK A01 T02260225  RH  100%=      5-min Rain = 0
KDO1 231849Z 14014KT 23/23 A2991 RMK A01 T02260226  RH  100%=      5-min Rain = 0
KDO1 231850Z 14013KT 23/23 A2991 RMK A01 T02260226  RH  100%=      5-min Rain = 0
KDO1 231851Z 14017KT 23/23 A299 RMK A01 T02260226  RH  100%=      5-min Rain = 0
KDO1 231852Z 15015KT 23/23 A299 RMK A01 T02260226  RH  100%=      5-min Rain = 0
KDO1 231853Z 15015G20KT 23/23 A299 RMK A01 T02260226  RH  100%=      5-min Rain = 0
KDO1 231854Z 15013KT 23/23 A299 RMK A01 T02260226  RH  100%=      5-min Rain = 0
KDO1 231855Z 14013KT 23/23 A299 RMK A01 T02260226  RH  100%=      5-min Rain = 0
KDO1 231856Z 14014KT 23/23 A299 RMK A01 T02260226  RH  100%=      5-min Rain = 0
KDO1 231857Z 14014KT 23/23 A299 RMK A01 T02260226  RH  100%=      5-min Rain = 0
KDO1 231858Z 14013KT 23/23 A299 RMK A01 T02260226  RH  100%=      5-min Rain = 0
KDO1 231859Z 14011KT 23/23 A299 RMK A01 T02260226  RH  100%=      5-min Rain = 0
KDO1 231900Z 14011KT 23/23 A299 RMK A01 T02260226  RH  100%=      5-min Rain = 0
KDO1 231901Z 14011KT 23/23 A299 RMK A01 T02260226  RH  100%=      5-min Rain = 0
KDO1 231902Z 13011G16KT 23/23 A299 RMK A01 T02260226  RH  100%=      5-min Rain = 0
KDO1 231903Z 15012G17KT 23/23 A299 RMK A01 T02270227  RH  100%=      5-min Rain = 0
KDO1 231904Z 14015KT 23/23 A299 RMK A01 T02270227  RH  100%=      5-min Rain = 0
KDO1 231905Z 14013G18KT 23/23 A299 RMK A01 T02270226  RH  100%=      5-min Rain = 0
KDO1 231906Z 14015KT 23/23 A299 RMK A01 T02270226  RH  099%=      5-min Rain = 0
KDO1 231907Z 14014KT 23/23 A299 RMK A01 T02270226  RH  099%=      5-min Rain = 0
KDO1 231908Z 15012KT 23/23 A299 RMK A01 T02270225  RH  099%=      5-min Rain = 0
KDO1 231909Z 14012KT 23/23 A299 RMK A01 T02280225  RH  098%=      5-min Rain = 0
KDO1 231910Z 14013KT 23/23 A299 RMK A01 T02280225  RH  098%=      5-min Rain = 0
KDO1 231911Z 14012KT 23/23 A299 RMK A01 T02280225  RH  098%=      5-min Rain = 0
KDO1 231912Z 14011KT 23/23 A299 RMK A01 T02280225  RH  098%=      5-min Rain = 0
KDO1 231913Z 15012KT 23/23 A299 RMK A01 T02280226  RH  098%=      5-min Rain = 0
KDO1 231914Z 14014KT 23/23 A299 RMK A01 T02280226  RH  098%=      5-min Rain = 0
KDO1 231915Z 14010G15KT 23/23 A299 RMK A01 T02280226  RH  098%=      5-min Rain = 0
KDO1 231916Z 13010KT 23/23 A299 RMK A01 T02280226  RH  099%=      5-min Rain = 0
KDO1 231917Z 14012KT 23/23 A2989 RMK A01 T02280226  RH  099%=      5-min Rain = 0
KDO1 231918Z 14015G20KT 23/23 A2989 RMK A01 T02280226  RH  098%=      5-min Rain = 0
KDO1 231919Z 14014KT 23/23 A2989 RMK A01 T02290226  RH  098%=      5-min Rain = 0
KDO1 231920Z 14013KT 23/23 A2989 RMK A01 T02290226  RH  098%=      5-min Rain = 0
KDO1 231921Z 15014KT 23/23 A2989 RMK A01 T02290226  RH  098%=      5-min Rain = 0
KDO1 231922Z 15014KT 23/23 A2989 RMK A01 T02300226  RH  098%=      5-min Rain = 0
KDO1 231923Z 14014KT 23/23 A2989 RMK A01 T02300226  RH  098%=      5-min Rain = 0
KDO1 231924Z 14016G21KT 23/23 A2989 RMK A01 T02300225  RH  097%=      5-min Rain = 0
KDO1 231925Z 15014KT 23/23 A2989 RMK A01 T02300225  RH  097%=      5-min Rain = 0
KDO1 231926Z 14015KT 23/23 A2989 RMK A01 T02310226  RH  097%=      5-min Rain = 0
KDO1 231927Z 15014G19KT 23/23 A2989 RMK A01 T02310226  RH  097%=      5-min Rain = 0
KDO1 231928Z 14016G22KT 23/23 A2989 RMK A01 T02310226  RH  097%=      5-min Rain = 0
KDO1 231929Z 14015KT 23/23 A2989 RMK A01 T02310226  RH  097%=      5-min Rain = 0
KDO1 231930Z 14012KT 23/23 A2989 RMK A01 T02300226  RH  097%=      5-min Rain = 0
KDO1 231931Z 14011KT 23/23 A2989 RMK A01 T02300226  RH  097%=      5-min Rain = 0
KDO1 231932Z 14013G18KT 23/23 A2989 RMK A01 T02300226  RH  098%=      5-min Rain = 0
KDO1 231933Z 15015KT 23/23 A2989 RMK A01 T02310227  RH  098%=      5-min Rain = 0
KDO1 231934Z 15013KT 23/23 A2989 RMK A01 T02310227  RH  098%=      5-min Rain = 0
KDO1 231935Z 14014KT 23/23 A2989 RMK A01 T02300227  RH  098%=      5-min Rain = 0
KDO1 231936Z 14014G19KT 23/23 A2989 RMK A01 T02300227  RH  098%=      5-min Rain = 0
KDO1 231937Z 14015KT 23/23 A2989 RMK A01 T02310227  RH  098%=      5-min Rain = 0
KDO1 231938Z 15012KT 23/23 A2989 RMK A01 T02300227  RH  098%=      5-min Rain = 0
KDO1 231939Z 14013G18KT 23/23 A2989 RMK A01 T02300227  RH  098%=      5-min Rain = 0
KDO1 231940Z 14013G19KT 23/23 A2989 RMK A01 T02310227  RH  098%=      5-min Rain = 0
KDO1 231941Z 14016KT 23/23 A2989 RMK A01 T02310227  RH  098%=      5-min Rain = 0
KDO1 231942Z 15016G21KT 23/23 A2989 RMK A01 T02310227  RH  098%=      5-min Rain = 0
KDO1 231943Z 14013KT 23/23 A2989 RMK A01 T02310227  RH  098%=      5-min Rain = 0
KDO1 231944Z 14014KT 23/23 A2989 RMK A01 T02310228  RH  098%=      5-min Rain = 0
KDO1 231945Z 14015KT 23/23 A2989 RMK A01 T02310228  RH  098%=      5-min Rain = 0
KDO1 231946Z 14015KT 23/23 A2989 RMK A01 T02310228  RH  098%=      5-min Rain = 0
KDO1 231947Z 15017KT 23/23 A2989 RMK A01 T02300228  RH  098%=      5-min Rain = 0
KDO1 231948Z 14016KT 23/23 A2989 RMK A01 T02310228  RH  098%=      5-min Rain = 0
KDO1 231949Z 15016G21KT 23/23 A2989 RMK A01 T02310227  RH  098%=      5-min Rain = 0
KDO1 231950Z 14016KT 23/23 A2989 RMK A01 T02310228  RH  098%=      5-min Rain = 0
KDO1 231951Z 14016KT 23/23 A2989 RMK A01 T02310228  RH  098%=      5-min Rain = 0
KDO1 231952Z 14012G19KT 23/23 A2989 RMK A01 T02310228  RH  098%=      5-min Rain = 0
KDO1 231953Z 13012KT 23/23 A2989 RMK A01 T02310229  RH  098%=      5-min Rain = 0
KDO1 231954Z 13012KT 23/23 A2989 RMK A01 T02320229  RH  098%=      5-min Rain = 0
KDO1 231955Z 14017KT 23/23 A2988 RMK A01 T02320229  RH  098%=      5-min Rain = 0
KDO1 231956Z 13018G23KT 23/23 A2989 RMK A01 T02320228  RH  098%=      5-min Rain = 0
KDO1 231957Z 14020KT 23/23 A2989 RMK A01 T02320227  RH  097%=      5-min Rain = 0
KDO1 231958Z 14016KT 23/23 A2989 RMK A01 T02320227  RH  097%=      5-min Rain = 0
KDO1 231959Z 14016KT 23/23 A2989 RMK A01 T02320228  RH  097%=      5-min Rain = 0
KDO1 232000Z 14014KT 23/23 A2989 RMK A01 T02320228  RH  097%=      5-min Rain = 0
KDO1 232001Z 14017KT 23/23 A2988 RMK A01 T02330228  RH  097%=      5-min Rain = 0
KDO1 232002Z 15014G19KT 23/23 A2988 RMK A01 T02330228  RH  097%=      5-min Rain = 0
KDO1 232003Z 14014KT 23/23 A2988 RMK A01 T02340228  RH  096%=      5-min Rain = 0
KDO1 232004Z 14012KT 23/23 A2989 RMK A01 T02340228  RH  096%=      5-min Rain = 0
KDO1 232005Z 14014KT 24/23 A2989 RMK A01 T02350228  RH  096%=      5-min Rain = 0
KDO1 232006Z 15017KT 24/23 A2989 RMK A01 T02350228  RH  096%=      5-min Rain = 0
KDO1 232007Z 14015KT 24/23 A2988 RMK A01 T02350228  RH  096%=      5-min Rain = 0
KDO1 232008Z 14014G25KT 24/23 A2988 RMK A01 T02350228  RH  096%=      5-min Rain = 0
KDO1 232009Z 14015KT 24/23 A2988 RMK A01 T02350228  RH  096%=      5-min Rain = 0
KDO1 232010Z 14013KT 24/23 A2988 RMK A01 T02350227  RH  095%=      5-min Rain = 0
KDO1 232011Z 14016KT 24/23 A2988 RMK A01 T02350228  RH  096%=      5-min Rain = 0
KDO1 232012Z 14013G18KT 24/23 A2988 RMK A01 T02350228  RH  096%=      5-min Rain = 0
KDO1 232013Z 14016G22KT 24/23 A2988 RMK A01 T02350228  RH  096%=      5-min Rain = 0
KDO1 232014Z 14017KT 24/23 A2988 RMK A01 T02350227  RH  095%=      5-min Rain = 0
KDO1 232015Z 14012KT 24/23 A2988 RMK A01 T02360227  RH  095%=      5-min Rain = 0
KDO1 232016Z 14013KT 24/23 A2988 RMK A01 T02360227  RH  095%=      5-min Rain = 0
KDO1 232017Z 13019KT 24/23 A2988 RMK A01 T02370227  RH  094%=      5-min Rain = 0
KDO1 232018Z 14018KT 24/23 A2988 RMK A01 T02360226  RH  094%=      5-min Rain = 0
KDO1 232019Z 14016KT 24/23 A2988 RMK A01 T02370226  RH  094%=      5-min Rain = 0
KDO1 232020Z 15012KT 24/23 A2988 RMK A01 T02380227  RH  094%=      5-min Rain = 0
KDO1 232021Z 15015KT 24/23 A2988 RMK A01 T02380227  RH  093%=      5-min Rain = 0
KDO1 232022Z 14016G22KT 24/23 A2988 RMK A01 T02380226  RH  093%=      5-min Rain = 0
KDO1 232023Z 15017KT 24/23 A2988 RMK A01 T02380226  RH  093%=      5-min Rain = 0
KDO1 232024Z 14018G25KT 24/23 A2988 RMK A01 T02380226  RH  093%=      5-min Rain = 0
KDO1 232025Z 14015KT 24/23 A2988 RMK A01 T02380227  RH  094%=      5-min Rain = 0
KDO1 232026Z 14016KT 24/23 A2988 RMK A01 T02380228  RH  094%=      5-min Rain = 0
KDO1 232027Z 14017KT 24/23 A2988 RMK A01 T02380227  RH  094%=      5-min Rain = 0
KDO1 232028Z 14017KT 24/23 A2988 RMK A01 T02380227  RH  094%=      5-min Rain = 0
KDO1 232029Z 14018KT 24/23 A2988 RMK A01 T02390227  RH  093%=      5-min Rain = 0
KDO1 232030Z 14015KT 24/23 A2988 RMK A01 T02390227  RH  093%=      5-min Rain = 0
KDO1 232031Z 13014G19KT 24/23 A2988 RMK A01 T02400228  RH  093%=      5-min Rain = 0
KDO1 232032Z 14020KT 24/23 A2988 RMK A01 T02400227  RH  092%=      5-min Rain = 0
KDO1 232033Z 14017KT 24/23 A2988 RMK A01 T02400226  RH  092%=      5-min Rain = 0
KDO1 232034Z 14016G21KT 24/23 A2988 RMK A01 T02410227  RH  092%=      5-min Rain = 0
KDO1 232035Z 14012KT 24/23 A2988 RMK A01 T02400227  RH  092%=      5-min Rain = 0
KDO1 232036Z 14013KT 24/23 A2988 RMK A01 T02410228  RH  092%=      5-min Rain = 0
KDO1 232037Z 14015KT 24/23 A2988 RMK A01 T02410227  RH  092%=      5-min Rain = 0
KDO1 232038Z 14013KT 24/23 A2988 RMK A01 T02410227  RH  092%=      5-min Rain = 0
KDO1 232039Z 14015KT 24/23 A2988 RMK A01 T02410227  RH  091%=      5-min Rain = 0
KDO1 232040Z 14016KT 24/23 A2988 RMK A01 T02420227  RH  091%=      5-min Rain = 0
KDO1 232041Z 14017G25KT 24/23 A2988 RMK A01 T02420227  RH  091%=      5-min Rain = 0
KDO1 232042Z 14020G25KT 24/23 A2988 RMK A01 T02430226  RH  091%=      5-min Rain = 0
KDO1 232043Z 14015KT 24/23 A2988 RMK A01 T02430227  RH  091%=      5-min Rain = 0
KDO1 232044Z 13016G23KT 24/23 A2988 RMK A01 T02430227  RH  090%=      5-min Rain = 0
KDO1 232045Z 14018KT 24/23 A2988 RMK A01 T02440227  RH  090%=      5-min Rain = 0
KDO1 232046Z 13020KT 25/23 A2988 RMK A01 T02450227  RH  090%=      5-min Rain = 0
KDO1 232047Z 13017KT 25/23 A2988 RMK A01 T02460228  RH  089%=      5-min Rain = 0
KDO1 232048Z 13016G22KT 25/23 A2988 RMK A01 T02480229  RH  089%=      5-min Rain = 0
KDO1 232049Z 13019KT 25/23 A2988 RMK A01 T02490229  RH  089%=      5-min Rain = 0
KDO1 232050Z 13018KT 25/23 A2988 RMK A01 T02490229  RH  088%=      5-min Rain = 0
KDO1 232051Z 15016KT 25/23 A2988 RMK A01 T02490229  RH  089%=      5-min Rain = 0
KDO1 232052Z 14014KT 25/23 A2988 RMK A01 T02490228  RH  088%=      5-min Rain = 0
KDO1 232053Z 14016KT 25/23 A2988 RMK A01 T02490228  RH  088%=      5-min Rain = 0
KDO1 232054Z 13014KT 25/23 A2988 RMK A01 T02500229  RH  088%=      5-min Rain = 0
KDO1 232055Z 13015G20KT 25/23 A2987 RMK A01 T02490228  RH  088%=      5-min Rain = 0
KDO1 232056Z 13016KT 25/23 A2987 RMK A01 T02490229  RH  088%=      5-min Rain = 0
KDO1 232057Z 14015G21KT 25/23 A2987 RMK A01 T02490227  RH  088%=      5-min Rain = 0
KDO1 232058Z 15014G21KT 25/23 A2987 RMK A01 T02490228  RH  088%=      5-min Rain = 0
KDO1 232059Z 14016KT 25/23 A2987 RMK A01 T02490226  RH  087%=      5-min Rain = 0
KDO1 232100Z 14012G17KT 25/23 A2987 RMK A01 T02490227  RH  087%=      5-min Rain = 0
KDO1 232101Z 14017KT 25/23 A2987 RMK A01 T02510227  RH  086%=      5-min Rain = 0
KDO1 232102Z 14014KT 25/23 A2987 RMK A01 T02530228  RH  086%=      5-min Rain = 0
KDO1 232103Z 14017KT 25/23 A2987 RMK A01 T02540230  RH  086%=      5-min Rain = 0
KDO1 232104Z 14016KT 25/23 A2987 RMK A01 T02540229  RH  086%=      5-min Rain = 0
KDO1 232105Z 14015KT 26/23 A2987 RMK A01 T02560231  RH  086%=      5-min Rain = 0
KDO1 232106Z 14017G22KT 26/23 A2987 RMK A01 T02570231  RH  085%=      5-min Rain = 0
KDO1 232107Z 14016G21KT 26/23 A2987 RMK A01 T02580229  RH  084%=      5-min Rain = 0
KDO1 232108Z 14015KT 26/23 A2987 RMK A01 T02590231  RH  085%=      5-min Rain = 0
KDO1 232109Z 13016G21KT 26/23 A2987 RMK A01 T02600231  RH  084%=      5-min Rain = 0
KDO1 232110Z 14019KT 26/23 A2987 RMK A01 T02590229  RH  083%=      5-min Rain = 0
KDO1 232111Z 14017G23KT 26/23 A2987 RMK A01 T02560228  RH  084%=      5-min Rain = 0
KDO1 232112Z 14014KT 26/23 A2987 RMK A01 T02550230  RH  086%=      5-min Rain = 0
KDO1 232113Z 14016KT 26/23 A2987 RMK A01 T02560231  RH  086%=      5-min Rain = 0
KDO1 232114Z 13017KT 26/23 A2987 RMK A01 T02580230  RH  085%=      5-min Rain = 0
KDO1 232115Z 13015KT 26/23 A2987 RMK A01 T02580231  RH  085%=      5-min Rain = 0
KDO1 232116Z 15014G19KT 26/23 A2987 RMK A01 T02580231  RH  085%=      5-min Rain = 0
KDO1 232117Z 14015KT 26/23 A2987 RMK A01 T02570231  RH  085%=      5-min Rain = 0
KDO1 232118Z 15018G23KT 26/23 A2987 RMK A01 T02580230  RH  084%=      5-min Rain = 0
KDO1 232119Z 15018KT 26/23 A2987 RMK A01 T02570227  RH  083%=      5-min Rain = 0
KDO1 232120Z 14014KT 26/23 A2987 RMK A01 T02560228  RH  085%=      5-min Rain = 0
KDO1 232121Z 13015KT 26/23 A2987 RMK A01 T02570232  RH  086%=      5-min Rain = 0
KDO1 232122Z 13016KT 26/23 A2987 RMK A01 T02600232  RH  085%=      5-min Rain = 0
KDO1 232123Z 13018KT 26/23 A2987 RMK A01 T02600231  RH  084%=      5-min Rain = 0
KDO1 232124Z 15016G22KT 26/23 A2986 RMK A01 T02580229  RH  084%=      5-min Rain = 0
KDO1 232125Z 14017KT 26/23 A2986 RMK A01 T02570230  RH  085%=      5-min Rain = 0
KDO1 232126Z 14014G19KT 26/23 A2986 RMK A01 T02570230  RH  085%=      5-min Rain = 0
KDO1 232127Z 14015KT 26/23 A2986 RMK A01 T02570232  RH  086%=      5-min Rain = 0
KDO1 232128Z 14015KT 26/23 A2986 RMK A01 T02580231  RH  085%=      5-min Rain = 0
KDO1 232129Z 14017KT 26/23 A2986 RMK A01 T02580230  RH  085%=      5-min Rain = 0
KDO1 232130Z 13017KT 26/23 A2986 RMK A01 T02560230  RH  085%=      5-min Rain = 0
KDO1 232131Z 13017KT 26/23 A2986 RMK A01 T02550228  RH  085%=      5-min Rain = 0
KDO1 232132Z 14013KT 25/23 A2986 RMK A01 T02540229  RH  086%=      5-min Rain = 0
KDO1 232133Z 14014G19KT 25/23 A2986 RMK A01 T02540230  RH  086%=      5-min Rain = 0
KDO1 232134Z 14016KT 25/23 A2986 RMK A01 T02540230  RH  086%=      5-min Rain = 0
KDO1 232135Z 13015G21KT 26/23 A2986 RMK A01 T02550230  RH  086%=      5-min Rain = 0
KDO1 232136Z 14016KT 26/23 A2986 RMK A01 T02550230  RH  086%=      5-min Rain = 0
KDO1 232137Z 14014KT 26/23 A2986 RMK A01 T02550229  RH  086%=      5-min Rain = 0
KDO1 232138Z 13017KT 26/23 A2986 RMK A01 T02550228  RH  085%=      5-min Rain = 0
KDO1 232139Z 14016KT 26/23 A2986 RMK A01 T02550229  RH  086%=      5-min Rain = 0
KDO1 232140Z 14013KT 25/23 A2986 RMK A01 T02540229  RH  086%=      5-min Rain = 0
KDO1 232141Z 13013G20KT 25/23 A2986 RMK A01 T02540230  RH  086%=      5-min Rain = 0
KDO1 232142Z 14017KT 25/23 A2986 RMK A01 T02540229  RH  086%=      5-min Rain = 0
KDO1 232143Z 15017KT 25/23 A2986 RMK A01 T02540228  RH  085%=      5-min Rain = 0
KDO1 232144Z 13013KT 25/23 A2986 RMK A01 T02540229  RH  086%=      5-min Rain = 0
KDO1 232145Z 13014KT 25/23 A2986 RMK A01 T02540229  RH  086%=      5-min Rain = 0
KDO1 232146Z 14017KT 25/23 A2985 RMK A01 T02540228  RH  086%=      5-min Rain = 0
KDO1 232147Z 15016KT 25/23 A2985 RMK A01 T02540227  RH  085%=      5-min Rain = 0
KDO1 232148Z 14014KT 25/23 A2985 RMK A01 T02540229  RH  086%=      5-min Rain = 0
KDO1 232149Z 14012KT 25/23 A2985 RMK A01 T02540229  RH  086%=      5-min Rain = 0
KDO1 232150Z 14011KT 26/23 A2985 RMK A01 T02550230  RH  086%=      5-min Rain = 0
KDO1 232151Z 13014KT 26/23 A2985 RMK A01 T02560230  RH  086%=      5-min Rain = 0
KDO1 232152Z 14014KT 26/23 A2985 RMK A01 T02570230  RH  085%=      5-min Rain = 0
KDO1 232153Z 14017G22KT 26/23 A2985 RMK A01 T02580229  RH  084%=      5-min Rain = 0
KDO1 232154Z 14015KT 26/23 A2985 RMK A01 T02580226  RH  083%=      5-min Rain = 0
KDO1 232155Z 13015G20KT 26/23 A2985 RMK A01 T02580227  RH  083%=      5-min Rain = 0
KDO1 232156Z 14012KT 26/23 A2985 RMK A01 T02580227  RH  083%=      5-min Rain = 0
KDO1 232157Z 14015G20KT 26/23 A2985 RMK A01 T02580228  RH  084%=      5-min Rain = 0
KDO1 232158Z 15012KT 26/23 A2985 RMK A01 T02580228  RH  084%=      5-min Rain = 0
KDO1 232159Z 14012KT 26/23 A2985 RMK A01 T02580229  RH  084%=      5-min Rain = 0
KDO1 232200Z 14016KT 26/23 A2985 RMK A01 T02580229  RH  084%=      5-min Rain = 0
KDO1 232201Z 13017G22KT 26/23 A2985 RMK A01 T02580228  RH  084%=      5-min Rain = 0
KDO1 232202Z 13016G21KT 26/23 A2984 RMK A01 T02580227  RH  083%=      5-min Rain = 0
KDO1 232203Z 14015KT 26/23 A2984 RMK A01 T02580228  RH  084%=      5-min Rain = 0
KDO1 232204Z 13019KT 26/23 A2984 RMK A01 T02580227  RH  083%=      5-min Rain = 0
KDO1 232205Z 13017KT 26/23 A2984 RMK A01 T02580226  RH  082%=      5-min Rain = 0
KDO1 232206Z 14017KT 26/23 A2984 RMK A01 T02590226  RH  082%=      5-min Rain = 0
KDO1 232207Z 14015KT 26/23 A2984 RMK A01 T02600226  RH  082%=      5-min Rain = 0
KDO1 232208Z 13020G25KT 26/23 A2984 RMK A01 T02610226  RH  081%=      5-min Rain = 0
KDO1 232209Z 15019KT 26/23 A2984 RMK A01 T02610225  RH  081%=      5-min Rain = 0
KDO1 232210Z 14017KT 26/23 A2984 RMK A01 T02610227  RH  081%=      5-min Rain = 0
KDO1 232211Z 15016KT 26/23 A2984 RMK A01 T02600226  RH  082%=      5-min Rain = 0
KDO1 232212Z 14012KT 26/23 A2984 RMK A01 T02600227  RH  082%=      5-min Rain = 0
KDO1 232213Z 14016KT 26/23 A2984 RMK A01 T02600228  RH  083%=      5-min Rain = 0
KDO1 232214Z 14015KT 26/23 A2984 RMK A01 T02590228  RH  083%=      5-min Rain = 0
KDO1 232215Z 14016KT 26/23 A2984 RMK A01 T02600227  RH  082%=      5-min Rain = 0
KDO1 232216Z 13018G23KT 26/23 A2983 RMK A01 T02590228  RH  083%=      5-min Rain = 0
KDO1 232217Z 14021KT 26/23 A2983 RMK A01 T02590226  RH  082%=      5-min Rain = 0
KDO1 232218Z 13017G25KT 26/23 A2983 RMK A01 T02590226  RH  082%=      5-min Rain = 0
KDO1 232219Z 13017KT 26/23 A2983 RMK A01 T02580227  RH  083%=      5-min Rain = 0
KDO1 232220Z 13018KT 26/23 A2983 RMK A01 T02590228  RH  083%=      5-min Rain = 0
KDO1 232221Z 14019KT 26/23 A2983 RMK A01 T02600226  RH  082%=      5-min Rain = 0
KDO1 232222Z 14014KT 26/23 A2983 RMK A01 T02600227  RH  082%=      5-min Rain = 0
KDO1 232223Z 13017KT 26/23 A2983 RMK A01 T02590228  RH  083%=      5-min Rain = 0
KDO1 232224Z 13015G20KT 26/23 A2983 RMK A01 T02590227  RH  082%=      5-min Rain = 0
KDO1 232225Z 13017G22KT 26/23 A2983 RMK A01 T02600228  RH  082%=      5-min Rain = 0
KDO1 232226Z 13017G23KT 26/23 A2983 RMK A01 T02610227  RH  082%=      5-min Rain = 0
KDO1 232227Z 13021G26KT 26/23 A2983 RMK A01 T02610228  RH  082%=      5-min Rain = 0
KDO1 232228Z 14017KT 26/23 A2982 RMK A01 T02610226  RH  081%=      5-min Rain = 0
KDO1 232229Z 14018KT 26/23 A2982 RMK A01 T02610225  RH  080%=      5-min Rain = 0
KDO1 232230Z 14017KT 26/23 A2982 RMK A01 T02610226  RH  081%=      5-min Rain = 0
KDO1 232231Z 14017G22KT 26/23 A2982 RMK A01 T02620226  RH  081%=      5-min Rain = 0
KDO1 232232Z 13019G24KT 26/23 A2982 RMK A01 T02620226  RH  081%=      5-min Rain = 0
KDO1 232233Z 14019KT 26/23 A2982 RMK A01 T02630226  RH  080%=      5-min Rain = 0
KDO1 232234Z 14019G24KT 26/23 A2982 RMK A01 T02630225  RH  080%=      5-min Rain = 0
KDO1 232235Z 14021G26KT 26/22 A2982 RMK A01 T02630224  RH  080%=      5-min Rain = 0
KDO1 232236Z 14021KT 26/22 A2982 RMK A01 T02630224  RH  079%=      5-min Rain = 0
KDO1 232237Z 15021G27KT 26/22 A2982 RMK A01 T02630224  RH  079%=      5-min Rain = 0
KDO1 232238Z 14016G21KT 26/23 A2982 RMK A01 T02630225  RH  080%=      5-min Rain = 0
KDO1 232239Z 13019G24KT 26/23 A2981 RMK A01 T02630225  RH  080%=      5-min Rain = 0
KDO1 232240Z 14016G23KT 26/23 A2981 RMK A01 T02630225  RH  080%=      5-min Rain = 0
KDO1 232241Z 14014G19KT 26/23 A2981 RMK A01 T02630226  RH  080%=      5-min Rain = 0
KDO1 232242Z 14016KT 26/23 A2981 RMK A01 T02630226  RH  080%=      5-min Rain = 0
KDO1 232243Z 13017KT 26/23 A2981 RMK A01 T02630226  RH  080%=      5-min Rain = 0
KDO1 232244Z 13019G26KT 26/23 A2981 RMK A01 T02620225  RH  080%=      5-min Rain = 0
KDO1 232245Z 14018KT 26/22 A2981 RMK A01 T02610224  RH  080%=      5-min Rain = 0
KDO1 232246Z 14019G29KT 26/22 A2981 RMK A01 T02610224  RH  080%=      5-min Rain = 0
KDO1 232247Z 14024G32KT 26/22 A2981 RMK A01 T02610222  RH  079%=      5-min Rain = 0
KDO1 232248Z 14022G29KT 26/22 A2981 RMK A01 T02610221  RH  079%=      5-min Rain = 0
KDO1 232249Z 14014G19KT 26/22 A2981 RMK A01 T02610223  RH  079%=      5-min Rain = 0
KDO1 232250Z 15020KT 26/22 A2981 RMK A01 T02610223  RH  080%=      5-min Rain = 0
KDO1 232251Z 14016G21KT 26/22 A2981 RMK A01 T02610223  RH  079%=      5-min Rain = 0
KDO1 232252Z 13016G21KT 26/22 A2981 RMK A01 T02610224  RH  080%=      5-min Rain = 0
KDO1 232253Z 14018G24KT 26/22 A2981 RMK A01 T02610224  RH  080%=      5-min Rain = 0
KDO1 232254Z 14014G19KT 26/22 A2981 RMK A01 T02610224  RH  080%=      5-min Rain = 0
KDO1 232255Z 15013G18KT 26/23 A2981 RMK A01 T02610226  RH  081%=      5-min Rain = 0
KDO1 232256Z 15019G26KT 26/22 A2981 RMK A01 T02610224  RH  080%=      5-min Rain = 0
KDO1 232257Z 14017G22KT 26/22 A2981 RMK A01 T02610223  RH  080%=      5-min Rain = 0
KDO1 232258Z 14020G26KT 26/22 A2981 RMK A01 T02600222  RH  079%=      5-min Rain = 0
KDO1 232259Z 14015G21KT 26/22 A2981 RMK A01 T02600223  RH  080%=      5-min Rain = 0
KDO1 232300Z 14017KT 26/22 A2981 RMK A01 T02590223  RH  080%=      5-min Rain = 0
KDO1 232301Z 14019KT 26/22 A2981 RMK A01 T02590223  RH  080%=      5-min Rain = 0
KDO1 232302Z 14020KT 26/22 A2981 RMK A01 T02590222  RH  080%=      5-min Rain = 0
KDO1 232303Z 15018KT 26/22 A2981 RMK A01 T02590222  RH  080%=      5-min Rain = 0
KDO1 232304Z 15019G25KT 26/22 A2981 RMK A01 T02590222  RH  080%=      5-min Rain = 0
KDO1 232305Z 14017KT 26/22 A2981 RMK A01 T02590222  RH  080%=      5-min Rain = 0
KDO1 232306Z 15017G24KT 26/22 A2981 RMK A01 T02590222  RH  080%=      5-min Rain = 0
KDO1 232307Z 15018G26KT 26/22 A2981 RMK A01 T02590222  RH  080%=      5-min Rain = 0
KDO1 232308Z 14020G25KT 26/22 A2981 RMK A01 T02580221  RH  080%=      5-min Rain = 0
KDO1 232309Z 14018KT 26/22 A2981 RMK A01 T02590221  RH  079%=      5-min Rain = 0
KDO1 232310Z 15018KT 26/22 A2981 RMK A01 T02590220  RH  079%=      5-min Rain = 0
KDO1 232311Z 14012KT 26/22 A2981 RMK A01 T02590222  RH  080%=      5-min Rain = 0
KDO1 232312Z 15015KT 26/22 A2981 RMK A01 T02590223  RH  080%=      5-min Rain = 0
KDO1 232313Z 15018G23KT 26/22 A2981 RMK A01 T02590222  RH  080%=      5-min Rain = 0
KDO1 232314Z 15021KT 26/22 A2981 RMK A01 T02590220  RH  079%=      5-min Rain = 0
KDO1 232315Z 15022G28KT 26/22 A2981 RMK A01 T02600219  RH  078%=      5-min Rain = 0
KDO1 232316Z 15022KT 26/22 A2981 RMK A01 T02600218  RH  078%=      5-min Rain = 0
KDO1 232317Z 15020KT 26/22 A2981 RMK A01 T02600218  RH  078%=      5-min Rain = 0
KDO1 232318Z 14015KT 26/22 A2981 RMK A01 T02600219  RH  078%=      5-min Rain = 0
KDO1 232319Z 14018G25KT 26/22 A2981 RMK A01 T02600219  RH  078%=      5-min Rain = 0
KDO1 232320Z 15020G27KT 26/22 A2981 RMK A01 T02600219  RH  078%=      5-min Rain = 0
KDO1 232321Z 14023G30KT 26/22 A2981 RMK A01 T02590217  RH  078%=      5-min Rain = 0
KDO1 232322Z 15021G26KT 26/22 A2981 RMK A01 T02590215  RH  077%=      5-min Rain = 0
KDO1 232323Z 15019G27KT 26/22 A2981 RMK A01 T02590216  RH  077%=      5-min Rain = 0
KDO1 232324Z 14015G22KT 26/22 A2981 RMK A01 T02600217  RH  077%=      5-min Rain = 0
KDO1 232325Z 15013G20KT 26/22 A2981 RMK A01 T02590218  RH  078%=      5-min Rain = 0
KDO1 232326Z 14017G22KT 26/22 A2981 RMK A01 T02590219  RH  079%=      5-min Rain = 0
KDO1 232327Z 14018G23KT 26/22 A2981 RMK A01 T02590218  RH  078%=      5-min Rain = 0
KDO1 232328Z 15016G21KT 26/22 A2981 RMK A01 T02590218  RH  078%=      5-min Rain = 0
KDO1 232329Z 15021G26KT 26/22 A2981 RMK A01 T02590217  RH  078%=      5-min Rain = 0
KDO1 232330Z 15016G21KT 26/22 A2981 RMK A01 T02590217  RH  078%=      5-min Rain = 0
KDO1 232331Z 14015KT 26/22 A2981 RMK A01 T02590218  RH  078%=      5-min Rain = 0
KDO1 232332Z 14016KT 26/22 A2981 RMK A01 T02590218  RH  078%=      5-min Rain = 0
KDO1 232333Z 14016G21KT 26/22 A2981 RMK A01 T02580218  RH  079%=      5-min Rain = 0
KDO1 232334Z 14016G21KT 26/22 A2981 RMK A01 T02580218  RH  078%=      5-min Rain = 0
KDO1 232335Z 14016KT 26/22 A2982 RMK A01 T02580218  RH  078%=      5-min Rain = 0
KDO1 232336Z 15019KT 26/22 A2982 RMK A01 T02580217  RH  078%=      5-min Rain = 0
KDO1 232337Z 14018KT 26/22 A2982 RMK A01 T02580217  RH  078%=      5-min Rain = 0
KDO1 232338Z 14017KT 26/22 A2982 RMK A01 T02590217  RH  078%=      5-min Rain = 0
KDO1 232339Z 15021G26KT 26/22 A2982 RMK A01 T02590215  RH  077%=      5-min Rain = 0
KDO1 232340Z 14019G24KT 26/21 A2982 RMK A01 T02590214  RH  076%=      5-min Rain = 0
KDO1 232341Z 15018G24KT 26/21 A2982 RMK A01 T02600214  RH  076%=      5-min Rain = 0
KDO1 232342Z 14020G30KT 26/21 A2982 RMK A01 T02600214  RH  076%=      5-min Rain = 0
KDO1 232343Z 14017KT 26/21 A2982 RMK A01 T02600214  RH  076%=      5-min Rain = 0
KDO1 232344Z 14019G30KT 26/21 A2981 RMK A01 T02600214  RH  076%=      5-min Rain = 0
KDO1 232345Z 15017KT 26/21 A2982 RMK A01 T02600214  RH  076%=      5-min Rain = 0
KDO1 232346Z 14017G22KT 26/21 A2982 RMK A01 T02600214  RH  076%=      5-min Rain = 0
KDO1 232347Z 15018KT 26/21 A2982 RMK A01 T02600214  RH  076%=      5-min Rain = 0
KDO1 232348Z 14023KT 26/21 A2982 RMK A01 T02600213  RH  075%=      5-min Rain = 0
KDO1 232349Z 15019G24KT 26/21 A2982 RMK A01 T02600212  RH  075%=      5-min Rain = 0
KDO1 232350Z 15019KT 26/21 A2982 RMK A01 T02600213  RH  075%=      5-min Rain = 0
KDO1 232351Z 15014G19KT 26/21 A2982 RMK A01 T02610213  RH  075%=      5-min Rain = 0
KDO1 232352Z 14017KT 26/21 A2982 RMK A01 T02600214  RH  076%=      5-min Rain = 0
KDO1 232353Z 14016G23KT 26/21 A2982 RMK A01 T02600213  RH  075%=      5-min Rain = 0
KDO1 232354Z 14015KT 26/21 A2982 RMK A01 T02600213  RH  075%=      5-min Rain = 0
KDO1 232355Z 14016G21KT 26/21 A2982 RMK A01 T02600213  RH  076%=      5-min Rain = 0
KDO1 232356Z 14017KT 26/21 A2982 RMK A01 T02600213  RH  075%=      5-min Rain = 0
KDO1 232357Z 15014KT 26/21 A2982 RMK A01 T02600213  RH  075%=      5-min Rain = 0
KDO1 232358Z 14015KT 26/21 A2982 RMK A01 T02590213  RH  076%=      5-min Rain = 0
KDO1 232359Z 14015KT 26/21 A2982 RMK A01 T02590213  RH  076%=      5-min Rain = 0
KDO1 240000Z 14013KT 26/21 A2982 RMK A01 T02590214  RH  076%=      5-min Rain = 0
KDO1 240001Z 14015G22KT 26/21 A2982 RMK A01 T02580213  RH  076%=      5-min Rain = 0
KDO1 240002Z 14017G25KT 26/21 A2982 RMK A01 T02580212  RH  076%=      5-min Rain = 0
KDO1 240003Z 15020G25KT 26/21 A2982 RMK A01 T02580212  RH  075%=      5-min Rain = 0
KDO1 240004Z 14017G22KT 26/21 A2982 RMK A01 T02580212  RH  075%=      5-min Rain = 0
KDO1 240005Z 15015KT 26/21 A2982 RMK A01 T02590213  RH  076%=      5-min Rain = 0
KDO1 240006Z 14018G27KT 26/21 A2981 RMK A01 T02590213  RH  076%=      5-min Rain = 0
KDO1 240007Z 14018KT 26/21 A2981 RMK A01 T02590212  RH  075%=      5-min Rain = 0
KDO1 240008Z 15015G20KT 26/21 A2981 RMK A01 T02590212  RH  075%=      5-min Rain = 0
KDO1 240009Z 14015G20KT 26/21 A2981 RMK A01 T02580212  RH  076%=      5-min Rain = 0
KDO1 240010Z 14017G22KT 26/21 A2981 RMK A01 T02580212  RH  076%=      5-min Rain = 0
KDO1 240011Z 15015KT 26/21 A2981 RMK A01 T02580212  RH  075%=      5-min Rain = 0
KDO1 240012Z 14015KT 26/21 A2981 RMK A01 T02580212  RH  076%=      5-min Rain = 0
KDO1 240013Z 15017KT 26/21 A2981 RMK A01 T02580212  RH  076%=      5-min Rain = 0
KDO1 240014Z 15016G22KT 26/21 A2981 RMK A01 T02580211  RH  076%=      5-min Rain = 0
KDO1 240015Z 13017KT 26/21 A2981 RMK A01 T02570211  RH  075%=      5-min Rain = 0
KDO1 240016Z 14015KT 26/21 A2981 RMK A01 T02580211  RH  075%=      5-min Rain = 0
KDO1 240017Z 14018KT 26/21 A2981 RMK A01 T02580211  RH  075%=      5-min Rain = 0
KDO1 240018Z 14016G21KT 26/21 A2981 RMK A01 T02580211  RH  075%=      5-min Rain = 0
KDO1 240019Z 14017G23KT 26/21 A2981 RMK A01 T02580211  RH  075%=      5-min Rain = 0
KDO1 240020Z 14017G22KT 26/21 A298 RMK A01 T02580210  RH  075%=      5-min Rain = 0
KDO1 240021Z 14016KT 26/21 A298 RMK A01 T02570210  RH  075%=      5-min Rain = 0
KDO1 240022Z 14016G22KT 26/21 A298 RMK A01 T02580211  RH  075%=      5-min Rain = 0
KDO1 240023Z 14017G23KT 26/21 A2981 RMK A01 T02580210  RH  075%=      5-min Rain = 0
KDO1 240024Z 13018G23KT 26/21 A2981 RMK A01 T02580210  RH  075%=      5-min Rain = 0
KDO1 240025Z 13013KT 26/21 A2981 RMK A01 T02580211  RH  075%=      5-min Rain = 0
KDO1 240026Z 14015G21KT 26/21 A2981 RMK A01 T02570211  RH  076%=      5-min Rain = 0
KDO1 240027Z 15016KT 26/21 A2981 RMK A01 T02570211  RH  075%=      5-min Rain = 0
KDO1 240028Z 14014KT 26/21 A2981 RMK A01 T02570211  RH  076%=      5-min Rain = 0
KDO1 240029Z 14015KT 26/21 A2981 RMK A01 T02570211  RH  076%=      5-min Rain = 0
KDO1 240030Z 14018G24KT 26/21 A2981 RMK A01 T02560211  RH  076%=      5-min Rain = 0
KDO1 240031Z 14016KT 26/21 A2981 RMK A01 T02560210  RH  076%=      5-min Rain = 0
KDO1 240032Z 14014KT 26/21 A2981 RMK A01 T02560211  RH  076%=      5-min Rain = 0
KDO1 240033Z 14018G24KT 26/21 A2981 RMK A01 T02560210  RH  076%=      5-min Rain = 0
KDO1 240034Z 14014G21KT 26/21 A2981 RMK A01 T02560210  RH  076%=      5-min Rain = 0
KDO1 240035Z 14014KT 26/21 A2982 RMK A01 T02570211  RH  076%=      5-min Rain = 0
KDO1 240036Z 15014KT 26/21 A2982 RMK A01 T02560211  RH  076%=      5-min Rain = 0
KDO1 240037Z 14011KT 26/21 A2982 RMK A01 T02560212  RH  076%=      5-min Rain = 0
KDO1 240038Z 14012KT 26/21 A2982 RMK A01 T02560212  RH  077%=      5-min Rain = 0
KDO1 240039Z 14012KT 26/21 A2982 RMK A01 T02560212  RH  077%=      5-min Rain = 0
KDO1 240040Z 14013KT 26/21 A2982 RMK A01 T02550212  RH  077%=      5-min Rain = 0
KDO1 240041Z 15015G20KT 26/21 A2982 RMK A01 T02550211  RH  077%=      5-min Rain = 0
KDO1 240042Z 14017KT 26/21 A2982 RMK A01 T02550211  RH  076%=      5-min Rain = 0
KDO1 240043Z 14014KT 26/21 A2982 RMK A01 T02550210  RH  076%=      5-min Rain = 0
KDO1 240044Z 15014KT 26/21 A2982 RMK A01 T02560211  RH  076%=      5-min Rain = 0
KDO1 240045Z 14014G20KT 26/21 A2982 RMK A01 T02560211  RH  076%=      5-min Rain = 0
KDO1 240046Z 14014G20KT 26/21 A2982 RMK A01 T02560211  RH  076%=      5-min Rain = 0
KDO1 240047Z 14011G16KT 26/21 A2982 RMK A01 T02560212  RH  077%=      5-min Rain = 0
KDO1 240048Z 14012KT 26/21 A2982 RMK A01 T02550212  RH  077%=      5-min Rain = 0
KDO1 240049Z 14012KT 26/21 A2982 RMK A01 T02550212  RH  077%=      5-min Rain = 0
KDO1 240050Z 14013G18KT 25/21 A2982 RMK A01 T02540212  RH  077%=      5-min Rain = 0
KDO1 240051Z 14015G20KT 26/21 A2982 RMK A01 T02550211  RH  077%=      5-min Rain = 0
KDO1 240052Z 14011KT 25/21 A2983 RMK A01 T02540210  RH  076%=      5-min Rain = 0
KDO1 240053Z 14012G17KT 26/21 A2983 RMK A01 T02550211  RH  077%=      5-min Rain = 0
KDO1 240054Z 14011KT 25/21 A2983 RMK A01 T02540211  RH  077%=      5-min Rain = 0
KDO1 240055Z 13011KT 25/21 A2983 RMK A01 T02540212  RH  077%=      5-min Rain = 0
KDO1 240056Z 14014KT 25/21 A2983 RMK A01 T02540211  RH  077%=      5-min Rain = 0
KDO1 240057Z 14011KT 25/21 A2983 RMK A01 T02530210  RH  077%=      5-min Rain = 0
KDO1 240058Z 14011KT 25/21 A2983 RMK A01 T02540211  RH  077%=      5-min Rain = 0
KDO1 240059Z 14015G21KT 25/21 A2983 RMK A01 T02530211  RH  077%=      5-min Rain = 0
KDO1 240100Z 14016KT 25/21 A2983 RMK A01 T02530210  RH  077%=      5-min Rain = 0
KDO1 240101Z 14012G17KT 25/21 A2983 RMK A01 T02540210  RH  076%=      5-min Rain = 0
KDO1 240102Z 13012KT 25/21 A2983 RMK A01 T02540211  RH  077%=      5-min Rain = 0
KDO1 240103Z 13014KT 25/21 A2983 RMK A01 T02540210  RH  077%=      5-min Rain = 0
KDO1 240104Z 13015G20KT 25/21 A2983 RMK A01 T02540211  RH  077%=      5-min Rain = 0
KDO1 240105Z 13013KT 25/21 A2983 RMK A01 T02540210  RH  077%=      5-min Rain = 0
KDO1 240106Z 14014G19KT 25/21 A2982 RMK A01 T02540211  RH  077%=      5-min Rain = 0
KDO1 240107Z 13013KT 25/21 A2982 RMK A01 T02530211  RH  077%=      5-min Rain = 0
KDO1 240108Z 13014G19KT 25/21 A2982 RMK A01 T02530211  RH  077%=      5-min Rain = 0
KDO1 240109Z 13014KT 25/21 A2982 RMK A01 T02530211  RH  078%=      5-min Rain = 0
KDO1 240110Z 13014KT 25/21 A2983 RMK A01 T02530211  RH  078%=      5-min Rain = 0
KDO1 240111Z 14012KT 25/21 A2982 RMK A01 T02520211  RH  078%=      5-min Rain = 0
KDO1 240112Z 14016G22KT 25/21 A2982 RMK A01 T02520211  RH  078%=      5-min Rain = 0
KDO1 240113Z 14011KT 25/21 A2982 RMK A01 T02520210  RH  078%=      5-min Rain = 0
KDO1 240114Z 13013KT 25/21 A2982 RMK A01 T02520211  RH  078%=      5-min Rain = 0
KDO1 240115Z 14013KT 25/21 A2982 RMK A01 T02510211  RH  078%=      5-min Rain = 0
KDO1 240116Z 13014KT 25/21 A2982 RMK A01 T02510211  RH  078%=      5-min Rain = 0
KDO1 240117Z 13017G22KT 25/21 A2982 RMK A01 T02510210  RH  078%=      5-min Rain = 0
KDO1 240118Z 14011KT 25/21 A2982 RMK A01 T02510210  RH  078%=      5-min Rain = 0
KDO1 240119Z 13013G21KT 25/21 A2982 RMK A01 T02510211  RH  078%=      5-min Rain = 0
KDO1 240120Z 13013KT 25/21 A2983 RMK A01 T02510210  RH  078%=      5-min Rain = 0
KDO1 240121Z 13013KT 25/21 A2983 RMK A01 T02510210  RH  078%=      5-min Rain = 0
KDO1 240122Z 13013KT 25/21 A2983 RMK A01 T02510210  RH  078%=      5-min Rain = 0
KDO1 240123Z 13010KT 25/21 A2983 RMK A01 T02510210  RH  078%=      5-min Rain = 0
KDO1 240124Z 14013G18KT 25/21 A2983 RMK A01 T02510210  RH  078%=      5-min Rain = 0
KDO1 240125Z 14013KT 25/21 A2983 RMK A01 T02510210  RH  078%=      5-min Rain = 0
KDO1 240126Z 14011KT 25/21 A2984 RMK A01 T02510210  RH  078%=      5-min Rain = 0
KDO1 240127Z 14012KT 25/21 A2984 RMK A01 T02510210  RH  078%=      5-min Rain = 0
KDO1 240128Z 14013KT 25/21 A2983 RMK A01 T02510209  RH  078%=      5-min Rain = 0
KDO1 240129Z 14013KT 25/21 A2983 RMK A01 T02520209  RH  077%=      5-min Rain = 0
KDO1 240130Z 13012KT 25/21 A2983 RMK A01 T02520209  RH  077%=      5-min Rain = 0
KDO1 240131Z 14012KT 25/21 A2984 RMK A01 T02520209  RH  077%=      5-min Rain = 0
KDO1 240132Z 14010KT 25/21 A2984 RMK A01 T02520210  RH  078%=      5-min Rain = 0
KDO1 240133Z 14011KT 25/21 A2984 RMK A01 T02510210  RH  078%=      5-min Rain = 0
KDO1 240134Z 13012KT 25/21 A2984 RMK A01 T02510210  RH  078%=      5-min Rain = 0
KDO1 240135Z 14009KT 25/21 A2984 RMK A01 T02510210  RH  078%=      5-min Rain = 0
KDO1 240136Z 14010G15KT 25/21 A2984 RMK A01 T02510210  RH  078%=      5-min Rain = 0
KDO1 240137Z 14010KT 25/21 A2984 RMK A01 T02510210  RH  078%=      5-min Rain = 0
KDO1 240138Z 14009KT 25/21 A2984 RMK A01 T02510210  RH  078%=      5-min Rain = 0
KDO1 240139Z 13008KT 25/21 A2984 RMK A01 T02510210  RH  078%=      5-min Rain = 0
KDO1 240140Z 14011KT 25/21 A2983 RMK A01 T02510210  RH  078%=      5-min Rain = 0
KDO1 240141Z 13010KT 25/21 A2983 RMK A01 T02510210  RH  078%=      5-min Rain = 0
KDO1 240142Z 13011KT 25/21 A2983 RMK A01 T02500210  RH  078%=      5-min Rain = 0
KDO1 240143Z 13010KT 25/21 A2983 RMK A01 T02490209  RH  078%=      5-min Rain = 0
KDO1 240144Z 13010KT 25/21 A2983 RMK A01 T02490210  RH  079%=      5-min Rain = 0
KDO1 240145Z 13010KT 25/21 A2983 RMK A01 T02490209  RH  079%=      5-min Rain = 0
KDO1 240146Z 13009KT 25/21 A2983 RMK A01 T02490209  RH  079%=      5-min Rain = 0
KDO1 240147Z 13010KT 25/21 A2984 RMK A01 T02490210  RH  079%=      5-min Rain = 0
KDO1 240148Z 14012KT 25/21 A2984 RMK A01 T02490210  RH  079%=      5-min Rain = 0
KDO1 240149Z 14011KT 25/21 A2984 RMK A01 T02480209  RH  079%=      5-min Rain = 0
KDO1 240150Z 15011KT 25/21 A2985 RMK A01 T02490209  RH  079%=      5-min Rain = 0
KDO1 240151Z 15009KT 25/21 A2985 RMK A01 T02490209  RH  078%=      5-min Rain = 0
KDO1 240152Z 14009KT 25/21 A2985 RMK A01 T02490209  RH  078%=      5-min Rain = 0
KDO1 240153Z 14011KT 25/21 A2985 RMK A01 T02490208  RH  078%=      5-min Rain = 0
KDO1 240154Z 13010KT 25/21 A2985 RMK A01 T02490208  RH  078%=      5-min Rain = 0
KDO1 240155Z 13010KT 25/21 A2984 RMK A01 T02500208  RH  078%=      5-min Rain = 0
KDO1 240156Z 14008KT 25/21 A2984 RMK A01 T02500208  RH  078%=      5-min Rain = 0
KDO1 240157Z 13008KT 25/21 A2984 RMK A01 T02500209  RH  078%=      5-min Rain = 0
KDO1 240158Z 13010KT 25/21 A2984 RMK A01 T02490209  RH  078%=      5-min Rain = 0
KDO1 240159Z 14012KT 25/21 A2984 RMK A01 T02480209  RH  079%=      5-min Rain = 0
KDO1 240200Z 14010KT 25/21 A2985 RMK A01 T02480208  RH  078%=      5-min Rain = 0
KDO1 240201Z 14009KT 25/21 A2985 RMK A01 T02480208  RH  078%=      5-min Rain = 0
KDO1 240202Z 15013KT 25/21 A2985 RMK A01 T02480207  RH  078%=      5-min Rain = 0
KDO1 240203Z 15012KT 25/21 A2986 RMK A01 T02490207  RH  078%=      5-min Rain = 0
KDO1 240204Z 15008KT 25/21 A2986 RMK A01 T02490208  RH  078%=      5-min Rain = 0
KDO1 240205Z 15012KT 25/21 A2986 RMK A01 T02490208  RH  078%=      5-min Rain = 0
KDO1 240206Z 14013KT 25/21 A2986 RMK A01 T02490208  RH  078%=      5-min Rain = 0
KDO1 240207Z 14010KT 25/21 A2986 RMK A01 T02490207  RH  078%=      5-min Rain = 0
KDO1 240208Z 14011KT 25/21 A2985 RMK A01 T02490208  RH  078%=      5-min Rain = 0
KDO1 240209Z 14010KT 25/21 A2985 RMK A01 T02490208  RH  078%=      5-min Rain = 0
KDO1 240210Z 13009KT 25/21 A2985 RMK A01 T02490208  RH  078%=      5-min Rain = 0
KDO1 240211Z 14009G14KT 25/21 A2985 RMK A01 T02480209  RH  079%=      5-min Rain = 0
KDO1 240212Z 14012KT 25/21 A2986 RMK A01 T02470208  RH  079%=      5-min Rain = 0
KDO1 240213Z 14009KT 25/21 A2986 RMK A01 T02470209  RH  079%=      5-min Rain = 0
KDO1 240214Z 15006KT 25/21 A2986 RMK A01 T02470209  RH  079%=      5-min Rain = 0
KDO1 240215Z 15008KT 25/21 A2986 RMK A01 T02470209  RH  079%=      5-min Rain = 0
KDO1 240216Z 15007KT 25/21 A2986 RMK A01 T02470209  RH  079%=      5-min Rain = 0
KDO1 240217Z 15007KT 25/21 A2986 RMK A01 T02470209  RH  080%=      5-min Rain = 0
KDO1 240218Z 15008KT 25/21 A2987 RMK A01 T02470209  RH  080%=      5-min Rain = 0
KDO1 240219Z 14009KT 25/21 A2986 RMK A01 T02460209  RH  080%=      5-min Rain = 0
KDO1 240220Z 14008KT 25/21 A2986 RMK A01 T02460209  RH  080%=      5-min Rain = 0
KDO1 240221Z 14009KT 25/21 A2986 RMK A01 T02470209  RH  080%=      5-min Rain = 0
KDO1 240222Z 14014KT 25/21 A2986 RMK A01 T02470209  RH  080%=      5-min Rain = 0
KDO1 240223Z 14011KT 25/21 A2986 RMK A01 T02470209  RH  079%=      5-min Rain = 0
KDO1 240224Z 14012KT 25/21 A2986 RMK A01 T02470209  RH  079%=      5-min Rain = 0
KDO1 240225Z 14012KT 25/21 A2987 RMK A01 T02480209  RH  079%=      5-min Rain = 0
KDO1 240226Z 14011KT 25/21 A2987 RMK A01 T02480209  RH  079%=      5-min Rain = 0
KDO1 240227Z 14011KT 25/21 A2987 RMK A01 T02470209  RH  079%=      5-min Rain = 0
KDO1 240228Z 14009KT 25/21 A2987 RMK A01 T02480209  RH  079%=      5-min Rain = 0
KDO1 240229Z 15009KT 25/21 A2987 RMK A01 T02470210  RH  079%=      5-min Rain = 0
KDO1 240230Z 14010KT 25/21 A2988 RMK A01 T02470210  RH  080%=      5-min Rain = 0
KDO1 240231Z 14011KT 25/21 A2988 RMK A01 T02470209  RH  079%=      5-min Rain = 0
KDO1 240232Z 15010KT 25/21 A2988 RMK A01 T02470209  RH  079%=      5-min Rain = 0
KDO1 240233Z 15010G15KT 25/21 A2988 RMK A01 T02470209  RH  079%=      5-min Rain = 0
KDO1 240234Z 14011KT 25/21 A2988 RMK A01 T02470209  RH  079%=      5-min Rain = 0
KDO1 240235Z 15009KT 25/21 A2988 RMK A01 T02470209  RH  079%=      5-min Rain = 0
KDO1 240236Z 16010KT 25/21 A2989 RMK A01 T02480209  RH  079%=      5-min Rain = 0
KDO1 240237Z 16009KT 25/21 A2989 RMK A01 T02480209  RH  079%=      5-min Rain = 0
KDO1 240238Z 15008KT 25/21 A2989 RMK A01 T02480209  RH  079%=      5-min Rain = 0
KDO1 240239Z 15009KT 25/21 A2989 RMK A01 T02480209  RH  079%=      5-min Rain = 0
KDO1 240240Z 15006KT 25/21 A2989 RMK A01 T02470210  RH  079%=      5-min Rain = 0
KDO1 240241Z 16009KT 25/21 A2989 RMK A01 T02470210  RH  080%=      5-min Rain = 0
KDO1 240242Z 16008KT 25/21 A2989 RMK A01 T02470209  RH  080%=      5-min Rain = 0
KDO1 240243Z 16007KT 25/21 A2989 RMK A01 T02470209  RH  080%=      5-min Rain = 0
KDO1 240244Z 15008KT 25/21 A2989 RMK A01 T02470210  RH  080%=      5-min Rain = 0
KDO1 240245Z 15008KT 25/21 A2989 RMK A01 T02470210  RH  080%=      5-min Rain = 0
KDO1 240246Z 15007KT 25/21 A2989 RMK A01 T02460210  RH  080%=      5-min Rain = 0
KDO1 240247Z 15007KT 25/21 A2989 RMK A01 T02460210  RH  080%=      5-min Rain = 0
KDO1 240248Z 15006KT 25/21 A2989 RMK A01 T02460210  RH  081%=      5-min Rain = 0
KDO1 240249Z 16007KT 25/21 A2989 RMK A01 T02460211  RH  081%=      5-min Rain = 0
KDO1 240250Z 15008KT 25/21 A2989 RMK A01 T02450211  RH  081%=      5-min Rain = 0
KDO1 240251Z 16008KT 25/21 A299 RMK A01 T02450210  RH  081%=      5-min Rain = 0
KDO1 240252Z 16008KT 25/21 A299 RMK A01 T02450210  RH  081%=      5-min Rain = 0
KDO1 240253Z 16007KT 25/21 A299 RMK A01 T02450210  RH  081%=      5-min Rain = 0
KDO1 240254Z 16009KT 25/21 A299 RMK A01 T02450209  RH  081%=      5-min Rain = 0
KDO1 240255Z 15009KT 25/21 A299 RMK A01 T02450209  RH  081%=      5-min Rain = 0
KDO1 240256Z 15009KT 25/21 A299 RMK A01 T02450209  RH  080%=      5-min Rain = 0
KDO1 240257Z 15009KT 25/21 A299 RMK A01 T02450209  RH  080%=      5-min Rain = 0
KDO1 240258Z 15008KT 25/21 A299 RMK A01 T02450210  RH  081%=      5-min Rain = 0
KDO1 240259Z 15006KT 25/21 A299 RMK A01 T02450210  RH  081%=      5-min Rain = 0
KDO1 240300Z 15007KT 25/21 A299 RMK A01 T02450210  RH  081%=      5-min Rain = 0
KDO1 240301Z 15008KT 24/21 A299 RMK A01 T02440210  RH  081%=      5-min Rain = 0
KDO1 240302Z 15009KT 24/21 A299 RMK A01 T02440210  RH  081%=      5-min Rain = 0
KDO1 240303Z 15008KT 24/21 A2991 RMK A01 T02440210  RH  081%=      5-min Rain = 0
KDO1 240304Z 16009KT 24/21 A2991 RMK A01 T02440210  RH  081%=      5-min Rain = 0
KDO1 240305Z 15010KT 24/21 A2991 RMK A01 T02440210  RH  081%=      5-min Rain = 0
KDO1 240306Z 16008KT 24/21 A2991 RMK A01 T02440210  RH  081%=      5-min Rain = 0
KDO1 240307Z 15009KT 24/21 A2991 RMK A01 T02440210  RH  081%=      5-min Rain = 0
KDO1 240308Z 14009KT 24/21 A2991 RMK A01 T02440210  RH  081%=      5-min Rain = 0
KDO1 240309Z 15009KT 24/21 A2991 RMK A01 T02440210  RH  081%=      5-min Rain = 0
KDO1 240310Z 15010KT 24/21 A2991 RMK A01 T02440210  RH  081%=      5-min Rain = 0
KDO1 240311Z 15009KT 24/21 A2991 RMK A01 T02440210  RH  081%=      5-min Rain = 0
KDO1 240312Z 14010KT 24/21 A2991 RMK A01 T02440210  RH  081%=      5-min Rain = 0
KDO1 240313Z 15009KT 24/21 A2991 RMK A01 T02440210  RH  082%=      5-min Rain = 0
KDO1 240314Z 15010KT 24/21 A2991 RMK A01 T02440210  RH  081%=      5-min Rain = 0
KDO1 240315Z 15010KT 24/21 A2991 RMK A01 T02440210  RH  081%=      5-min Rain = 0
KDO1 240316Z 15010KT 24/21 A2991 RMK A01 T02440209  RH  081%=      5-min Rain = 0
KDO1 240317Z 15009KT 24/21 A2991 RMK A01 T02440209  RH  081%=      5-min Rain = 0
KDO1 240318Z 15010KT 24/21 A2991 RMK A01 T02440210  RH  081%=      5-min Rain = 0
KDO1 240319Z 15010KT 24/21 A2991 RMK A01 T02440210  RH  081%=      5-min Rain = 0
KDO1 240320Z 15008KT 24/21 A2992 RMK A01 T02440210  RH  081%=      5-min Rain = 0
KDO1 240321Z 16008KT 24/21 A2992 RMK A01 T02440211  RH  082%=      5-min Rain = 0
KDO1 240322Z 15010KT 24/21 A2992 RMK A01 T02430210  RH  082%=      5-min Rain = 0
KDO1 240323Z 15009KT 24/21 A2992 RMK A01 T02430211  RH  082%=      5-min Rain = 0
KDO1 240324Z 15010KT 24/21 A2991 RMK A01 T02430210  RH  082%=      5-min Rain = 0
KDO1 240325Z 14009KT 24/21 A2991 RMK A01 T02430210  RH  082%=      5-min Rain = 0
KDO1 240326Z 15011KT 24/21 A2991 RMK A01 T02430211  RH  082%=      5-min Rain = 0
KDO1 240327Z 15011KT 24/21 A2991 RMK A01 T02430210  RH  082%=      5-min Rain = 0
KDO1 240328Z 14008KT 24/21 A2992 RMK A01 T02430210  RH  082%=      5-min Rain = 0
KDO1 240329Z 15009KT 24/21 A2992 RMK A01 T02430210  RH  082%=      5-min Rain = 0
KDO1 240330Z 16010KT 24/21 A2992 RMK A01 T02430210  RH  082%=      5-min Rain = 0
KDO1 240331Z 15009KT 24/21 A2992 RMK A01 T02420210  RH  082%=      5-min Rain = 0
KDO1 240332Z 15010KT 24/21 A2992 RMK A01 T02430210  RH  082%=      5-min Rain = 0
KDO1 240333Z 16010KT 24/21 A2992 RMK A01 T02420210  RH  082%=      5-min Rain = 0
KDO1 240334Z 15009KT 24/21 A2992 RMK A01 T02420209  RH  082%=      5-min Rain = 0
KDO1 240335Z 15011KT 24/21 A2992 RMK A01 T02430210  RH  082%=      5-min Rain = 0
KDO1 240336Z 15009KT 24/21 A2992 RMK A01 T02430210  RH  082%=      5-min Rain = 0
KDO1 240337Z 15008KT 24/21 A2992 RMK A01 T02430210  RH  082%=      5-min Rain = 0
KDO1 240338Z 15010KT 24/21 A2992 RMK A01 T02430210  RH  082%=      5-min Rain = 0
KDO1 240339Z 14010KT 24/21 A2992 RMK A01 T02430210  RH  082%=      5-min Rain = 0
KDO1 240340Z 14009KT 24/21 A2992 RMK A01 T02420210  RH  082%=      5-min Rain = 0
KDO1 240341Z 15010KT 24/21 A2992 RMK A01 T02420210  RH  082%=      5-min Rain = 0
KDO1 240342Z 14010KT 24/21 A2992 RMK A01 T02430210  RH  082%=      5-min Rain = 0
KDO1 240343Z 15009KT 24/21 A2992 RMK A01 T02420209  RH  082%=      5-min Rain = 0
KDO1 240344Z 15008KT 24/21 A2992 RMK A01 T02420210  RH  082%=      5-min Rain = 0
KDO1 240345Z 15008KT 24/21 A2992 RMK A01 T02420210  RH  082%=      5-min Rain = 0
KDO1 240346Z 15009KT 24/21 A2992 RMK A01 T02420210  RH  082%=      5-min Rain = 0
KDO1 240347Z 15010KT 24/21 A2992 RMK A01 T02420210  RH  082%=      5-min Rain = 0
KDO1 240348Z 14009KT 24/21 A2992 RMK A01 T02420210  RH  082%=      5-min Rain = 0
KDO1 240349Z 13011KT 24/21 A2991 RMK A01 T02420209  RH  082%=      5-min Rain = 0
KDO1 240350Z 14010KT 24/21 A2991 RMK A01 T02420209  RH  082%=      5-min Rain = 0
KDO1 240351Z 13009KT 24/21 A2991 RMK A01 T02420209  RH  082%=      5-min Rain = 0
KDO1 240352Z 14009KT 24/21 A2991 RMK A01 T02420209  RH  082%=      5-min Rain = 0
KDO1 240353Z 14011KT 24/21 A2992 RMK A01 T02420209  RH  082%=      5-min Rain = 0
KDO1 240354Z 14012KT 24/21 A2992 RMK A01 T02410209  RH  082%=      5-min Rain = 0
KDO1 240355Z 14009KT 24/21 A2992 RMK A01 T02410209  RH  082%=      5-min Rain = 0
KDO1 240356Z 13009KT 24/21 A2992 RMK A01 T02410209  RH  082%=      5-min Rain = 0
KDO1 240357Z 14009KT 24/21 A2992 RMK A01 T02420209  RH  082%=      5-min Rain = 0
KDO1 240358Z 14009KT 24/21 A2992 RMK A01 T02410209  RH  082%=      5-min Rain = 0
KDO1 240359Z 14010KT 24/21 A2992 RMK A01 T02410209  RH  083%=      5-min Rain = 0
KDO1 240400Z 14010KT 24/21 A2992 RMK A01 T02410209  RH  082%=      5-min Rain = 0
KDO1 240401Z 15008KT 24/21 A2992 RMK A01 T02410209  RH  082%=      5-min Rain = 0
KDO1 240402Z 14007KT 24/21 A2992 RMK A01 T02410209  RH  083%=      5-min Rain = 0
KDO1 240403Z 14007KT 24/21 A2993 RMK A01 T02400209  RH  083%=      5-min Rain = 0
KDO1 240404Z 15007KT 24/21 A2993 RMK A01 T02400209  RH  083%=      5-min Rain = 0
KDO1 240405Z 14008KT 24/21 A2993 RMK A01 T02390209  RH  083%=      5-min Rain = 0
KDO1 240406Z 14007KT 24/21 A2993 RMK A01 T02390209  RH  083%=      5-min Rain = 0
KDO1 240407Z 14008KT 24/21 A2992 RMK A01 T02380209  RH  084%=      5-min Rain = 0
KDO1 240408Z 14008KT 24/21 A2992 RMK A01 T02380209  RH  084%=      5-min Rain = 0
KDO1 240409Z 14008KT 24/21 A2992 RMK A01 T02380209  RH  084%=      5-min Rain = 0
KDO1 240410Z 14008KT 24/21 A2992 RMK A01 T02380209  RH  084%=      5-min Rain = 0
KDO1 240411Z 14009KT 24/21 A2992 RMK A01 T02380209  RH  084%=      5-min Rain = 0
KDO1 240412Z 14009KT 24/21 A2992 RMK A01 T02380209  RH  084%=      5-min Rain = 0
KDO1 240413Z 14007KT 24/21 A2992 RMK A01 T02380209  RH  084%=      5-min Rain = 0
KDO1 240414Z 14006KT 24/21 A2992 RMK A01 T02380209  RH  084%=      5-min Rain = 0
KDO1 240415Z 13007KT 24/21 A2992 RMK A01 T02380209  RH  084%=      5-min Rain = 0
KDO1 240416Z 13007KT 24/21 A2992 RMK A01 T02370209  RH  084%=      5-min Rain = 0
KDO1 240417Z 13007KT 24/21 A2992 RMK A01 T02370209  RH  085%=      5-min Rain = 0
KDO1 240418Z 14009KT 24/21 A2993 RMK A01 T02360209  RH  085%=      5-min Rain = 0
KDO1 240419Z 14007KT 24/21 A2993 RMK A01 T02370209  RH  085%=      5-min Rain = 0
KDO1 240420Z 14007KT 24/21 A2993 RMK A01 T02360210  RH  085%=      5-min Rain = 0
KDO1 240421Z 14006KT 24/21 A2993 RMK A01 T02360210  RH  085%=      5-min Rain = 0
KDO1 240422Z 14006KT 24/21 A2993 RMK A01 T02350210  RH  086%=      5-min Rain = 0
KDO1 240423Z 14006KT 24/21 A2993 RMK A01 T02350210  RH  086%=      5-min Rain = 0
KDO1 240424Z 14006KT 23/21 A2993 RMK A01 T02340210  RH  086%=      5-min Rain = 0
KDO1 240425Z 14005KT 23/21 A2993 RMK A01 T02340210  RH  086%=      5-min Rain = 0
KDO1 240426Z 14005KT 23/21 A2993 RMK A01 T02340210  RH  086%=      5-min Rain = 0
KDO1 240427Z 13005KT 23/21 A2993 RMK A01 T02330210  RH  086%=      5-min Rain = 0
KDO1 240428Z 14006KT 23/21 A2993 RMK A01 T02330209  RH  087%=      5-min Rain = 0
KDO1 240429Z 15006KT 23/21 A2993 RMK A01 T02330209  RH  087%=      5-min Rain = 0
KDO1 240430Z 14005KT 23/21 A2993 RMK A01 T02330210  RH  087%=      5-min Rain = 0
KDO1 240431Z 15006KT 23/21 A2993 RMK A01 T02330210  RH  087%=      5-min Rain = 0
KDO1 240432Z 15006KT 23/21 A2993 RMK A01 T02320209  RH  087%=      5-min Rain = 0
KDO1 240433Z 15006KT 23/21 A2993 RMK A01 T02330210  RH  087%=      5-min Rain = 0
KDO1 240434Z 14006KT 23/21 A2993 RMK A01 T02320210  RH  087%=      5-min Rain = 0
KDO1 240435Z 15005KT 23/21 A2993 RMK A01 T02320210  RH  087%=      5-min Rain = 0
KDO1 240436Z 14006KT 23/21 A2993 RMK A01 T02320210  RH  088%=      5-min Rain = 0
KDO1 240437Z 15006KT 23/21 A2993 RMK A01 T02310210  RH  088%=      5-min Rain = 0
KDO1 240438Z 15007KT 23/21 A2993 RMK A01 T02310210  RH  088%=      5-min Rain = 0
KDO1 240439Z 15007KT 23/21 A2993 RMK A01 T02310210  RH  088%=      5-min Rain = 0
KDO1 240440Z 15007KT 23/21 A2993 RMK A01 T02320210  RH  088%=      5-min Rain = 0
KDO1 240441Z 15006KT 23/21 A2993 RMK A01 T02310210  RH  088%=      5-min Rain = 0
KDO1 240442Z 14006KT 23/21 A2993 RMK A01 T02310210  RH  088%=      5-min Rain = 0
KDO1 240443Z 14006KT 23/21 A2993 RMK A01 T02310210  RH  088%=      5-min Rain = 0
KDO1 240444Z 14006KT 23/21 A2993 RMK A01 T02310211  RH  088%=      5-min Rain = 0
KDO1 240445Z 14005KT 23/21 A2993 RMK A01 T02300210  RH  088%=      5-min Rain = 0
KDO1 240446Z 14007KT 23/21 A2993 RMK A01 T02310210  RH  088%=      5-min Rain = 0
KDO1 240447Z 15008KT 23/21 A2993 RMK A01 T02310210  RH  088%=      5-min Rain = 0
KDO1 240448Z 15007KT 23/21 A2993 RMK A01 T02310210  RH  088%=      5-min Rain = 0
KDO1 240449Z 15008KT 23/21 A2993 RMK A01 T02310210  RH  088%=      5-min Rain = 0
KDO1 240450Z 15007KT 23/21 A2993 RMK A01 T02310210  RH  088%=      5-min Rain = 0
KDO1 240451Z 14008KT 23/21 A2993 RMK A01 T02310210  RH  088%=      5-min Rain = 0
KDO1 240452Z 15008KT 23/21 A2993 RMK A01 T02300210  RH  088%=      5-min Rain = 0
KDO1 240453Z 14007KT 23/21 A2992 RMK A01 T02300210  RH  088%=      5-min Rain = 0
KDO1 240454Z 15009KT 23/21 A2992 RMK A01 T02300210  RH  089%=      5-min Rain = 0
KDO1 240455Z 14009KT 23/21 A2992 RMK A01 T02300210  RH  089%=      5-min Rain = 0
KDO1 240456Z 14008KT 23/21 A2992 RMK A01 T02290210  RH  089%=      5-min Rain = 0
KDO1 240457Z 14008KT 23/21 A2992 RMK A01 T02300210  RH  089%=      5-min Rain = 0
KDO1 240458Z 14009KT 23/21 A2993 RMK A01 T02300210  RH  089%=      5-min Rain = 0
KDO1 240459Z 14009KT 23/21 A2993 RMK A01 T02300210  RH  089%=      5-min Rain = 0

Page generated in 0.0833 seconds.